Observation data for Lake McClellan 2NW on 11/19/2019      Previous  Date  Next       Current Mesonet Observations  Soil Data  Daily Summary Page  Observations in Plain Language
KMC5 190600Z 07007KT 13/01 A2996 RMK A01 T01330005  RH  041%=      5-min Rain = 0
KMC5 190601Z 07008KT 13/01 A2996 RMK A01 T01330005  RH  042%=      5-min Rain = 0
KMC5 190602Z 07007KT 13/01 A2996 RMK A01 T01330005  RH  042%=      5-min Rain = 0
KMC5 190603Z 07007KT 13/01 A2996 RMK A01 T01320005  RH  042%=      5-min Rain = 0
KMC5 190604Z 07007KT 13/01 A2996 RMK A01 T01320005  RH  042%=      5-min Rain = 0
KMC5 190605Z 06007KT 13/01 A2996 RMK A01 T01320005  RH  042%=      5-min Rain = 0
KMC5 190606Z 06007KT 13/01 A2996 RMK A01 T01310005  RH  042%=      5-min Rain = 0
KMC5 190607Z 06006KT 13/01 A2996 RMK A01 T01290005  RH  042%=      5-min Rain = 0
KMC5 190608Z 06006KT 13/01 A2996 RMK A01 T01280005  RH  043%=      5-min Rain = 0
KMC5 190609Z 06005KT 13/00 A2996 RMK A01 T01270004  RH  043%=      5-min Rain = 0
KMC5 190610Z 05005KT 13/00 A2997 RMK A01 T01260004  RH  043%=      5-min Rain = 0
KMC5 190611Z 05004KT 13/01 A2997 RMK A01 T01270005  RH  043%=      5-min Rain = 0
KMC5 190612Z 05003KT 13/01 A2997 RMK A01 T01260005  RH  043%=      5-min Rain = 0
KMC5 190613Z 05003KT 13/00 A2997 RMK A01 T01250004  RH  044%=      5-min Rain = 0
KMC5 190614Z 05003KT 12/00 A2997 RMK A01 T01240004  RH  044%=      5-min Rain = 0
KMC5 190615Z 04002KT 13/00 A2998 RMK A01 T01250004  RH  044%=      5-min Rain = 0
KMC5 190616Z 04002KT 13/01 A2998 RMK A01 T01270005  RH  043%=      5-min Rain = 0
KMC5 190617Z 04001KT 13/01 A2998 RMK A01 T01300005  RH  042%=      5-min Rain = 0
KMC5 190618Z 28000KT 13/01 A2998 RMK A01 T01310005  RH  042%=      5-min Rain = 0
KMC5 190619Z 24004KT 13/00 A2998 RMK A01 T01260002  RH  042%=      5-min Rain = 0
KMC5 190620Z 25006KT 11/M00 A2998 RMK A01 T01081002  RH  046%=      5-min Rain = 0
KMC5 190621Z 25006KT 09/M00 A2999 RMK A01 T00941002  RH  051%=      5-min Rain = 0
KMC5 190622Z 25005KT 09/00 A2999 RMK A01 T009000-0  RH  053%=      5-min Rain = 0
KMC5 190623Z 25005KT 09/00 A2999 RMK A01 T008800-0  RH  054%=      5-min Rain = 0
KMC5 190624Z 26004KT 09/00 A2999 RMK A01 T00860000  RH  055%=      5-min Rain = 0
KMC5 190625Z 26004KT 09/00 A2999 RMK A01 T00870002  RH  055%=      5-min Rain = 0
KMC5 190626Z 26004KT 09/00 A2999 RMK A01 T00920004  RH  054%=      5-min Rain = 0
KMC5 190627Z 27003KT 10/00 A2999 RMK A01 T00960004  RH  053%=      5-min Rain = 0
KMC5 190628Z 28002KT 10/00 A2999 RMK A01 T00980004  RH  052%=      5-min Rain = 0
KMC5 190629Z 29002KT 10/01 A2999 RMK A01 T01000005  RH  052%=      5-min Rain = 0
KMC5 190630Z 29002KT 10/01 A2999 RMK A01 T01020005  RH  051%=      5-min Rain = 0
KMC5 190631Z 31001KT 11/01 A2999 RMK A01 T01050006  RH  050%=      5-min Rain = 0
KMC5 190632Z 36002KT 11/01 A2999 RMK A01 T01070006  RH  049%=      5-min Rain = 0
KMC5 190633Z 35002KT 11/01 A2999 RMK A01 T01100006  RH  049%=      5-min Rain = 0
KMC5 190634Z 00002KT 11/01 A2999 RMK A01 T01130007  RH  048%=      5-min Rain = 0
KMC5 190635Z 01003KT 12/01 A2999 RMK A01 T01190008  RH  047%=      5-min Rain = 0
KMC5 190636Z 02003KT 12/01 A2999 RMK A01 T01230008  RH  045%=      5-min Rain = 0
KMC5 190637Z 02003KT 13/01 A2999 RMK A01 T01260008  RH  044%=      5-min Rain = 0
KMC5 190638Z 01003KT 13/01 A2999 RMK A01 T01270008  RH  044%=      5-min Rain = 0
KMC5 190639Z 02003KT 13/01 A2999 RMK A01 T01280008  RH  044%=      5-min Rain = 0
KMC5 190640Z 02003KT 13/01 A2999 RMK A01 T01300008  RH  043%=      5-min Rain = 0
KMC5 190641Z 02003KT 13/01 A2999 RMK A01 T01310008  RH  043%=      5-min Rain = 0
KMC5 190642Z 02003KT 13/01 A2999 RMK A01 T01330009  RH  043%=      5-min Rain = 0
KMC5 190643Z 03003KT 14/01 A2999 RMK A01 T01350009  RH  042%=      5-min Rain = 0
KMC5 190644Z 04002KT 14/01 A2999 RMK A01 T01360009  RH  042%=      5-min Rain = 0
KMC5 190645Z 04002KT 14/01 A2999 RMK A01 T01380009  RH  041%=      5-min Rain = 0
KMC5 190646Z 04002KT 14/01 A2999 RMK A01 T01380009  RH  041%=      5-min Rain = 0
KMC5 190647Z 04002KT 14/01 A2999 RMK A01 T01380008  RH  041%=      5-min Rain = 0
KMC5 190648Z 04002KT 13/01 A2999 RMK A01 T01310005  RH  042%=      5-min Rain = 0
KMC5 190649Z 04002KT 13/01 A2999 RMK A01 T01270006  RH  043%=      5-min Rain = 0
KMC5 190650Z 03002KT 13/01 A2999 RMK A01 T01250006  RH  044%=      5-min Rain = 0
KMC5 190651Z 03002KT 12/01 A2999 RMK A01 T01230006  RH  045%=      5-min Rain = 0
KMC5 190652Z 03002KT 12/01 A2999 RMK A01 T01210006  RH  045%=      5-min Rain = 0
KMC5 190653Z 03001KT 12/01 A2999 RMK A01 T01210007  RH  046%=      5-min Rain = 0
KMC5 190654Z 04002KT 12/01 A2999 RMK A01 T01210007  RH  045%=      5-min Rain = 0
KMC5 190655Z 05002KT 12/01 A2999 RMK A01 T01210006  RH  045%=      5-min Rain = 0
KMC5 190656Z 05002KT 12/01 A2999 RMK A01 T01210007  RH  046%=      5-min Rain = 0
KMC5 190657Z 05002KT 12/01 A2999 RMK A01 T01220008  RH  046%=      5-min Rain = 0
KMC5 190658Z 05003KT 13/01 A2999 RMK A01 T01250009  RH  045%=      5-min Rain = 0
KMC5 190659Z 05003KT 13/01 A2999 RMK A01 T01290010  RH  044%=      5-min Rain = 0
KMC5 190700Z 05002KT 13/01 A2999 RMK A01 T01330010  RH  043%=      5-min Rain = 0
KMC5 190701Z 05002KT 14/01 A2999 RMK A01 T01360010  RH  042%=      5-min Rain = 0
KMC5 190702Z 05002KT 14/01 A2999 RMK A01 T01390010  RH  041%=      5-min Rain = 0
KMC5 190703Z 05002KT 14/01 A2999 RMK A01 T01400010  RH  041%=      5-min Rain = 0
KMC5 190704Z 06002KT 14/01 A2999 RMK A01 T01410010  RH  041%=      5-min Rain = 0
KMC5 190705Z 06002KT 14/01 A2999 RMK A01 T01410009  RH  041%=      5-min Rain = 0
KMC5 190706Z 06002KT 14/01 A2999 RMK A01 T01420009  RH  040%=      5-min Rain = 0
KMC5 190707Z 06002KT 14/01 A2999 RMK A01 T01420009  RH  040%=      5-min Rain = 0
KMC5 190708Z 06001KT 14/01 A2999 RMK A01 T01420009  RH  040%=      5-min Rain = 0
KMC5 190709Z 06001KT 14/01 A2999 RMK A01 T01420009  RH  040%=      5-min Rain = 0
KMC5 190710Z 05001KT 14/01 A2999 RMK A01 T01420009  RH  040%=      5-min Rain = 0
KMC5 190711Z 04001KT 14/00 A2999 RMK A01 T01350004  RH  041%=      5-min Rain = 0
KMC5 190712Z 05001KT 13/00 A2999 RMK A01 T01260003  RH  043%=      5-min Rain = 0
KMC5 190713Z 06002KT 12/00 A2999 RMK A01 T01210004  RH  045%=      5-min Rain = 0
KMC5 190714Z 06002KT 12/01 A2999 RMK A01 T01190005  RH  045%=      5-min Rain = 0
KMC5 190715Z 06002KT 12/01 A2999 RMK A01 T01190006  RH  046%=      5-min Rain = 0
KMC5 190716Z 06002KT 12/01 A2999 RMK A01 T01190007  RH  046%=      5-min Rain = 0
KMC5 190717Z 06002KT 12/01 A2999 RMK A01 T01230009  RH  046%=      5-min Rain = 0
KMC5 190718Z 06002KT 13/01 A2999 RMK A01 T01280010  RH  044%=      5-min Rain = 0
KMC5 190719Z 06003KT 13/01 A2999 RMK A01 T01330010  RH  043%=      5-min Rain = 0
KMC5 190720Z 06003KT 14/01 A2999 RMK A01 T01370010  RH  042%=      5-min Rain = 0
KMC5 190721Z 06003KT 14/01 A2999 RMK A01 T01400010  RH  041%=      5-min Rain = 0
KMC5 190722Z 06004KT 14/01 A2999 RMK A01 T01410010  RH  041%=      5-min Rain = 0
KMC5 190723Z 06004KT 14/01 A2999 RMK A01 T01410010  RH  041%=      5-min Rain = 0
KMC5 190724Z 06004KT 14/01 A2999 RMK A01 T01410009  RH  041%=      5-min Rain = 0
KMC5 190725Z 06004KT 14/01 A2999 RMK A01 T01410009  RH  041%=      5-min Rain = 0
KMC5 190726Z 05004KT 14/01 A2999 RMK A01 T01400009  RH  041%=      5-min Rain = 0
KMC5 190727Z 05004KT 14/01 A2999 RMK A01 T01400009  RH  041%=      5-min Rain = 0
KMC5 190728Z 05005KT 14/01 A2999 RMK A01 T01390009  RH  041%=      5-min Rain = 0
KMC5 190729Z 05005KT 14/01 A2999 RMK A01 T01370008  RH  041%=      5-min Rain = 0
KMC5 190730Z 05005KT 14/01 A2999 RMK A01 T01360008  RH  042%=      5-min Rain = 0
KMC5 190731Z 06005KT 14/01 A2999 RMK A01 T01350008  RH  042%=      5-min Rain = 0
KMC5 190732Z 06005KT 13/01 A2998 RMK A01 T01340008  RH  042%=      5-min Rain = 0
KMC5 190733Z 06005KT 13/01 A2998 RMK A01 T01320008  RH  043%=      5-min Rain = 0
KMC5 190734Z 06006KT 13/01 A2998 RMK A01 T01310008  RH  043%=      5-min Rain = 0
KMC5 190735Z 06006KT 13/01 A2998 RMK A01 T01310008  RH  043%=      5-min Rain = 0
KMC5 190736Z 07006KT 13/01 A2998 RMK A01 T01310008  RH  043%=      5-min Rain = 0
KMC5 190737Z 07006KT 13/01 A2998 RMK A01 T01300008  RH  043%=      5-min Rain = 0
KMC5 190738Z 07006KT 13/01 A2998 RMK A01 T01300008  RH  043%=      5-min Rain = 0
KMC5 190739Z 06006KT 13/01 A2998 RMK A01 T01300008  RH  043%=      5-min Rain = 0
KMC5 190740Z 06006KT 13/01 A2998 RMK A01 T01290008  RH  044%=      5-min Rain = 0
KMC5 190741Z 06006KT 13/01 A2998 RMK A01 T01280008  RH  044%=      5-min Rain = 0
KMC5 190742Z 06006KT 13/01 A2998 RMK A01 T01270008  RH  044%=      5-min Rain = 0
KMC5 190743Z 06007KT 13/01 A2998 RMK A01 T01250008  RH  045%=      5-min Rain = 0
KMC5 190744Z 06006KT 12/01 A2998 RMK A01 T01240008  RH  045%=      5-min Rain = 0
KMC5 190745Z 06007KT 12/01 A2998 RMK A01 T01240008  RH  045%=      5-min Rain = 0
KMC5 190746Z 06006KT 12/01 A2998 RMK A01 T01230008  RH  045%=      5-min Rain = 0
KMC5 190747Z 06006KT 12/01 A2998 RMK A01 T01220008  RH  046%=      5-min Rain = 0
KMC5 190748Z 06006KT 12/01 A2998 RMK A01 T01220008  RH  046%=      5-min Rain = 0
KMC5 190749Z 06006KT 12/01 A2998 RMK A01 T01220008  RH  045%=      5-min Rain = 0
KMC5 190750Z 06005KT 12/01 A2998 RMK A01 T01220008  RH  045%=      5-min Rain = 0
KMC5 190751Z 06005KT 12/01 A2998 RMK A01 T01230008  RH  045%=      5-min Rain = 0
KMC5 190752Z 06005KT 12/01 A2998 RMK A01 T01230008  RH  045%=      5-min Rain = 0
KMC5 190753Z 07004KT 12/01 A2998 RMK A01 T01240008  RH  045%=      5-min Rain = 0
KMC5 190754Z 07004KT 12/01 A2998 RMK A01 T01230008  RH  045%=      5-min Rain = 0
KMC5 190755Z 07004KT 12/01 A2998 RMK A01 T01230008  RH  045%=      5-min Rain = 0
KMC5 190756Z 07003KT 12/01 A2998 RMK A01 T01230008  RH  045%=      5-min Rain = 0
KMC5 190757Z 06003KT 12/01 A2998 RMK A01 T01230008  RH  045%=      5-min Rain = 0
KMC5 190758Z 07003KT 12/01 A2998 RMK A01 T01220008  RH  045%=      5-min Rain = 0
KMC5 190759Z 07002KT 12/01 A2999 RMK A01 T01200006  RH  046%=      5-min Rain = 0
KMC5 190800Z 07002KT 11/00 A2999 RMK A01 T01120003  RH  047%=      5-min Rain = 0
KMC5 190801Z 06001KT 10/M00 A2999 RMK A01 T01001001  RH  050%=      5-min Rain = 0
KMC5 190802Z 03000KT 09/M00 A2999 RMK A01 T00881002  RH  053%=      5-min Rain = 0
KMC5 190803Z 00000KT 08/M00 A2999 RMK A01 T00821001  RH  056%=      5-min Rain = 0
KMC5 190804Z 24001KT 08/00 A2999 RMK A01 T007900-0  RH  057%=      5-min Rain = 0
KMC5 190805Z 24002KT 08/00 A2999 RMK A01 T00770000  RH  058%=      5-min Rain = 0
KMC5 190806Z 23002KT 08/00 A2999 RMK A01 T00750000  RH  059%=      5-min Rain = 0
KMC5 190807Z 23002KT 07/00 A2999 RMK A01 T007300-0  RH  060%=      5-min Rain = 0
KMC5 190808Z 24004KT 07/00 A2999 RMK A01 T007100-0  RH  061%=      5-min Rain = 0
KMC5 190809Z 24004KT 07/00 A2999 RMK A01 T007000-0  RH  061%=      5-min Rain = 0
KMC5 190810Z 24005KT 07/00 A30 RMK A01 T006900-0  RH  061%=      5-min Rain = 0
KMC5 190811Z 24006KT 07/00 A30 RMK A01 T006800-0  RH  062%=      5-min Rain = 0
KMC5 190812Z 24006KT 07/00 A30 RMK A01 T006700-0  RH  062%=      5-min Rain = 0
KMC5 190813Z 24006KT 07/M00 A30 RMK A01 T00671001  RH  062%=      5-min Rain = 0
KMC5 190814Z 25006KT 07/M00 A30 RMK A01 T00661001  RH  063%=      5-min Rain = 0
KMC5 190815Z 24006KT 07/00 A30 RMK A01 T00660000  RH  063%=      5-min Rain = 0
KMC5 190816Z 25006KT 07/00 A30 RMK A01 T00680000  RH  062%=      5-min Rain = 0
KMC5 190817Z 25005KT 07/00 A30 RMK A01 T00690001  RH  062%=      5-min Rain = 0
KMC5 190818Z 26005KT 07/00 A30 RMK A01 T00700001  RH  061%=      5-min Rain = 0
KMC5 190819Z 26005KT 07/00 A30 RMK A01 T00720002  RH  061%=      5-min Rain = 0
KMC5 190820Z 26005KT 07/00 A30 RMK A01 T00740002  RH  060%=      5-min Rain = 0
KMC5 190821Z 26004KT 08/01 A30 RMK A01 T00780005  RH  060%=      5-min Rain = 0
KMC5 190822Z 27005KT 08/01 A30 RMK A01 T00820005  RH  058%=      5-min Rain = 0
KMC5 190823Z 26004KT 09/01 A30 RMK A01 T00850005  RH  057%=      5-min Rain = 0
KMC5 190824Z 26004KT 09/01 A30 RMK A01 T00870005  RH  057%=      5-min Rain = 0
KMC5 190825Z 26004KT 09/00 A30 RMK A01 T00870004  RH  056%=      5-min Rain = 0
KMC5 190826Z 25004KT 09/01 A30 RMK A01 T00870005  RH  056%=      5-min Rain = 0
KMC5 190827Z 25004KT 09/01 A30 RMK A01 T00880006  RH  056%=      5-min Rain = 0
KMC5 190828Z 23003KT 09/01 A30 RMK A01 T00880005  RH  056%=      5-min Rain = 0
KMC5 190829Z 24004KT 09/01 A30 RMK A01 T00900006  RH  056%=      5-min Rain = 0
KMC5 190830Z 24005KT 09/01 A30 RMK A01 T00920006  RH  055%=      5-min Rain = 0
KMC5 190831Z 23004KT 09/01 A30 RMK A01 T00940006  RH  054%=      5-min Rain = 0
KMC5 190832Z 24005KT 10/01 A30 RMK A01 T00990008  RH  053%=      5-min Rain = 0
KMC5 190833Z 24005KT 10/01 A30 RMK A01 T01020007  RH  052%=      5-min Rain = 0
KMC5 190834Z 24005KT 10/01 A30 RMK A01 T01020006  RH  052%=      5-min Rain = 0
KMC5 190835Z 24006KT 10/01 A30 RMK A01 T01000005  RH  052%=      5-min Rain = 0
KMC5 190836Z 24008KT 09/00 A30 RMK A01 T00920001  RH  053%=      5-min Rain = 0
KMC5 190837Z 24008KT 08/M01 A3001 RMK A01 T00751006  RH  056%=      5-min Rain = 0
KMC5 190838Z 24007KT 06/M01 A3001 RMK A01 T00601008  RH  062%=      5-min Rain = 0
KMC5 190839Z 25007KT 05/M01 A3001 RMK A01 T00531006  RH  066%=      5-min Rain = 0
KMC5 190840Z 24007KT 05/M01 A3001 RMK A01 T00501005  RH  067%=      5-min Rain = 0
KMC5 190841Z 24007KT 05/M00 A3001 RMK A01 T00501003  RH  069%=      5-min Rain = 0
KMC5 190842Z 24007KT 05/M00 A3001 RMK A01 T00511003  RH  069%=      5-min Rain = 0
KMC5 190843Z 25006KT 05/M00 A3001 RMK A01 T00521001  RH  069%=      5-min Rain = 0
KMC5 190844Z 25006KT 05/00 A3001 RMK A01 T005400-0  RH  068%=      5-min Rain = 0
KMC5 190845Z 25006KT 06/00 A3001 RMK A01 T005600-0  RH  067%=      5-min Rain = 0
KMC5 190846Z 26006KT 06/00 A30 RMK A01 T00590000  RH  066%=      5-min Rain = 0
KMC5 190847Z 26006KT 06/00 A30 RMK A01 T00610001  RH  065%=      5-min Rain = 0
KMC5 190848Z 26006KT 06/00 A30 RMK A01 T00640001  RH  064%=      5-min Rain = 0
KMC5 190849Z 26005KT 07/00 A30 RMK A01 T00670002  RH  063%=      5-min Rain = 0
KMC5 190850Z 25005KT 07/00 A30 RMK A01 T00700003  RH  062%=      5-min Rain = 0
KMC5 190851Z 25004KT 07/00 A30 RMK A01 T00730003  RH  061%=      5-min Rain = 0
KMC5 190852Z 25004KT 08/00 A30 RMK A01 T00770004  RH  060%=      5-min Rain = 0
KMC5 190853Z 25004KT 08/01 A30 RMK A01 T00810005  RH  059%=      5-min Rain = 0
KMC5 190854Z 24005KT 08/01 A30 RMK A01 T00840005  RH  057%=      5-min Rain = 0
KMC5 190855Z 25005KT 09/01 A30 RMK A01 T00860005  RH  057%=      5-min Rain = 0
KMC5 190856Z 25005KT 09/00 A30 RMK A01 T00870004  RH  056%=      5-min Rain = 0
KMC5 190857Z 24005KT 09/00 A30 RMK A01 T00860003  RH  056%=      5-min Rain = 0
KMC5 190858Z 24004KT 08/00 A30 RMK A01 T00840003  RH  057%=      5-min Rain = 0
KMC5 190859Z 24003KT 08/00 A30 RMK A01 T00840004  RH  057%=      5-min Rain = 0
KMC5 190900Z 24003KT 09/01 A30 RMK A01 T00860005  RH  057%=      5-min Rain = 0
KMC5 190901Z 24003KT 09/01 A30 RMK A01 T00900006  RH  056%=      5-min Rain = 0
KMC5 190902Z 23003KT 09/01 A30 RMK A01 T00940007  RH  055%=      5-min Rain = 0
KMC5 190903Z 22003KT 10/01 A30 RMK A01 T00980008  RH  054%=      5-min Rain = 0
KMC5 190904Z 20003KT 10/01 A30 RMK A01 T01010008  RH  053%=      5-min Rain = 0
KMC5 190905Z 21003KT 10/01 A30 RMK A01 T01040009  RH  052%=      5-min Rain = 0
KMC5 190906Z 20002KT 11/01 A30 RMK A01 T01060009  RH  051%=      5-min Rain = 0
KMC5 190907Z 21002KT 11/01 A30 RMK A01 T01080009  RH  050%=      5-min Rain = 0
KMC5 190908Z 20002KT 11/01 A30 RMK A01 T01100010  RH  050%=      5-min Rain = 0
KMC5 190909Z 19002KT 11/01 A30 RMK A01 T01120010  RH  049%=      5-min Rain = 0
KMC5 190910Z 19002KT 11/01 A30 RMK A01 T01140010  RH  049%=      5-min Rain = 0
KMC5 190911Z 18002KT 12/01 A30 RMK A01 T01150010  RH  048%=      5-min Rain = 0
KMC5 190912Z 16002KT 12/01 A30 RMK A01 T01160010  RH  048%=      5-min Rain = 0
KMC5 190913Z 15002KT 12/01 A30 RMK A01 T01170010  RH  048%=      5-min Rain = 0
KMC5 190914Z 14003KT 12/01 A30 RMK A01 T01170010  RH  048%=      5-min Rain = 0
KMC5 190915Z 14003KT 12/01 A30 RMK A01 T01180010  RH  048%=      5-min Rain = 0
KMC5 190916Z 15003KT 12/01 A30 RMK A01 T01190011  RH  048%=      5-min Rain = 0
KMC5 190917Z 15002KT 12/01 A30 RMK A01 T01200012  RH  047%=      5-min Rain = 0
KMC5 190918Z 15002KT 12/01 A30 RMK A01 T01200012  RH  047%=      5-min Rain = 0
KMC5 190919Z 16003KT 12/01 A30 RMK A01 T01210012  RH  047%=      5-min Rain = 0
KMC5 190920Z 17003KT 12/01 A30 RMK A01 T01210011  RH  047%=      5-min Rain = 0
KMC5 190921Z 17002KT 12/01 A30 RMK A01 T01210011  RH  047%=      5-min Rain = 0
KMC5 190922Z 19002KT 12/01 A30 RMK A01 T01210011  RH  047%=      5-min Rain = 0
KMC5 190923Z 20002KT 12/01 A30 RMK A01 T01210011  RH  047%=      5-min Rain = 0
KMC5 190924Z 23002KT 12/01 A30 RMK A01 T01220012  RH  047%=      5-min Rain = 0
KMC5 190925Z 25002KT 12/01 A30 RMK A01 T01200010  RH  047%=      5-min Rain = 0
KMC5 190926Z 24002KT 12/01 A30 RMK A01 T01170010  RH  048%=      5-min Rain = 0
KMC5 190927Z 23001KT 12/01 A30 RMK A01 T01160010  RH  048%=      5-min Rain = 0
KMC5 190928Z 23002KT 12/01 A30 RMK A01 T01170011  RH  048%=      5-min Rain = 0
KMC5 190929Z 23002KT 12/01 A30 RMK A01 T01170011  RH  048%=      5-min Rain = 0
KMC5 190930Z 22002KT 12/01 A30 RMK A01 T01160010  RH  048%=      5-min Rain = 0
KMC5 190931Z 24002KT 12/01 A30 RMK A01 T01160010  RH  048%=      5-min Rain = 0
KMC5 190932Z 24002KT 11/01 A30 RMK A01 T01140010  RH  049%=      5-min Rain = 0
KMC5 190933Z 25003KT 11/01 A30 RMK A01 T01140009  RH  049%=      5-min Rain = 0
KMC5 190934Z 26003KT 11/01 A30 RMK A01 T01100007  RH  049%=      5-min Rain = 0
KMC5 190935Z 26003KT 11/01 A30 RMK A01 T01070006  RH  050%=      5-min Rain = 0
KMC5 190936Z 26003KT 10/01 A30 RMK A01 T01030006  RH  051%=      5-min Rain = 0
KMC5 190937Z 25003KT 10/01 A30 RMK A01 T01010006  RH  052%=      5-min Rain = 0
KMC5 190938Z 25003KT 10/01 A30 RMK A01 T01000007  RH  052%=      5-min Rain = 0
KMC5 190939Z 25003KT 10/01 A2999 RMK A01 T00990007  RH  053%=      5-min Rain = 0
KMC5 190940Z 26004KT 10/01 A2999 RMK A01 T00950005  RH  053%=      5-min Rain = 0
KMC5 190941Z 26004KT 09/00 A2999 RMK A01 T00890004  RH  055%=      5-min Rain = 0
KMC5 190942Z 24004KT 09/00 A2999 RMK A01 T00850004  RH  057%=      5-min Rain = 0
KMC5 190943Z 24003KT 08/00 A2999 RMK A01 T00830004  RH  058%=      5-min Rain = 0
KMC5 190944Z 24003KT 08/01 A2999 RMK A01 T00830005  RH  058%=      5-min Rain = 0
KMC5 190945Z 24003KT 09/01 A2999 RMK A01 T00850006  RH  058%=      5-min Rain = 0
KMC5 190946Z 25004KT 09/01 A2999 RMK A01 T00860006  RH  057%=      5-min Rain = 0
KMC5 190947Z 25003KT 08/01 A2999 RMK A01 T00840005  RH  057%=      5-min Rain = 0
KMC5 190948Z 25003KT 08/01 A2999 RMK A01 T00830005  RH  058%=      5-min Rain = 0
KMC5 190949Z 25003KT 08/01 A2999 RMK A01 T00830005  RH  058%=      5-min Rain = 0
KMC5 190950Z 25004KT 08/01 A2999 RMK A01 T00830005  RH  058%=      5-min Rain = 0
KMC5 190951Z 25004KT 08/01 A2999 RMK A01 T00820005  RH  058%=      5-min Rain = 0
KMC5 190952Z 25003KT 08/00 A2999 RMK A01 T00810004  RH  058%=      5-min Rain = 0
KMC5 190953Z 25004KT 08/00 A2999 RMK A01 T00800004  RH  059%=      5-min Rain = 0
KMC5 190954Z 24003KT 08/00 A2999 RMK A01 T00780004  RH  059%=      5-min Rain = 0
KMC5 190955Z 25003KT 08/00 A2999 RMK A01 T00770003  RH  060%=      5-min Rain = 0
KMC5 190956Z 24003KT 08/00 A2999 RMK A01 T00750003  RH  060%=      5-min Rain = 0
KMC5 190957Z 23003KT 07/00 A2999 RMK A01 T00740003  RH  061%=      5-min Rain = 0
KMC5 190958Z 24003KT 08/00 A2999 RMK A01 T00750004  RH  061%=      5-min Rain = 0
KMC5 190959Z 23002KT 08/01 A2999 RMK A01 T00760006  RH  061%=      5-min Rain = 0
KMC5 191000Z 22002KT 08/01 A2999 RMK A01 T00830009  RH  059%=      5-min Rain = 0
KMC5 191001Z 21002KT 09/01 A2999 RMK A01 T00880009  RH  058%=      5-min Rain = 0
KMC5 191002Z 20002KT 09/01 A2999 RMK A01 T00910009  RH  056%=      5-min Rain = 0
KMC5 191003Z 20003KT 09/01 A2999 RMK A01 T00920008  RH  056%=      5-min Rain = 0
KMC5 191004Z 18003KT 09/01 A2999 RMK A01 T00930009  RH  056%=      5-min Rain = 0
KMC5 191005Z 17003KT 10/01 A2998 RMK A01 T00970010  RH  055%=      5-min Rain = 0
KMC5 191006Z 18003KT 10/01 A2998 RMK A01 T01000011  RH  054%=      5-min Rain = 0
KMC5 191007Z 16002KT 10/01 A2998 RMK A01 T01030012  RH  053%=      5-min Rain = 0
KMC5 191008Z 16003KT 11/01 A2998 RMK A01 T01060014  RH  053%=      5-min Rain = 0
KMC5 191009Z 15003KT 11/02 A2998 RMK A01 T01090015  RH  052%=      5-min Rain = 0
KMC5 191010Z 15003KT 11/02 A2998 RMK A01 T01130016  RH  051%=      5-min Rain = 0
KMC5 191011Z 15003KT 12/02 A2998 RMK A01 T01160016  RH  050%=      5-min Rain = 0
KMC5 191012Z 14003KT 12/02 A2998 RMK A01 T01180016  RH  050%=      5-min Rain = 0
KMC5 191013Z 14003KT 12/02 A2998 RMK A01 T01200017  RH  049%=      5-min Rain = 0
KMC5 191014Z 13003KT 12/02 A2998 RMK A01 T01210017  RH  049%=      5-min Rain = 0
KMC5 191015Z 14003KT 12/02 A2998 RMK A01 T01220017  RH  049%=      5-min Rain = 0
KMC5 191016Z 14003KT 12/02 A2998 RMK A01 T01230018  RH  049%=      5-min Rain = 0
KMC5 191017Z 14003KT 12/02 A2998 RMK A01 T01240018  RH  048%=      5-min Rain = 0
KMC5 191018Z 14002KT 12/02 A2998 RMK A01 T01240018  RH  048%=      5-min Rain = 0
KMC5 191019Z 13002KT 12/02 A2998 RMK A01 T01240018  RH  048%=      5-min Rain = 0
KMC5 191020Z 13002KT 12/02 A2998 RMK A01 T01240018  RH  048%=      5-min Rain = 0
KMC5 191021Z 12003KT 12/02 A2998 RMK A01 T01240018  RH  048%=      5-min Rain = 0
KMC5 191022Z 12003KT 13/02 A2998 RMK A01 T01250018  RH  048%=      5-min Rain = 0
KMC5 191023Z 12003KT 13/02 A2998 RMK A01 T01260018  RH  048%=      5-min Rain = 0
KMC5 191024Z 12003KT 13/02 A2998 RMK A01 T01270018  RH  047%=      5-min Rain = 0
KMC5 191025Z 12003KT 13/02 A2998 RMK A01 T01280018  RH  047%=      5-min Rain = 0
KMC5 191026Z 11004KT 13/02 A2998 RMK A01 T01290018  RH  047%=      5-min Rain = 0
KMC5 191027Z 11004KT 13/02 A2998 RMK A01 T01290018  RH  047%=      5-min Rain = 0
KMC5 191028Z 11004KT 13/02 A2998 RMK A01 T01300018  RH  047%=      5-min Rain = 0
KMC5 191029Z 11004KT 13/02 A2998 RMK A01 T01300018  RH  046%=      5-min Rain = 0
KMC5 191030Z 11004KT 13/02 A2998 RMK A01 T01310018  RH  046%=      5-min Rain = 0
KMC5 191031Z 11004KT 13/02 A2998 RMK A01 T01310018  RH  046%=      5-min Rain = 0
KMC5 191032Z 12004KT 13/02 A2998 RMK A01 T01310018  RH  046%=      5-min Rain = 0
KMC5 191033Z 12004KT 13/02 A2998 RMK A01 T01310018  RH  046%=      5-min Rain = 0
KMC5 191034Z 13004KT 13/02 A2998 RMK A01 T01310018  RH  046%=      5-min Rain = 0
KMC5 191035Z 14004KT 13/02 A2998 RMK A01 T01310017  RH  046%=      5-min Rain = 0
KMC5 191036Z 14004KT 13/02 A2998 RMK A01 T01290017  RH  046%=      5-min Rain = 0
KMC5 191037Z 15004KT 13/02 A2998 RMK A01 T01280017  RH  047%=      5-min Rain = 0
KMC5 191038Z 15004KT 13/02 A2998 RMK A01 T01270017  RH  047%=      5-min Rain = 0
KMC5 191039Z 16004KT 13/02 A2998 RMK A01 T01260017  RH  047%=      5-min Rain = 0
KMC5 191040Z 17004KT 12/02 A2998 RMK A01 T01240016  RH  048%=      5-min Rain = 0
KMC5 191041Z 16004KT 12/02 A2998 RMK A01 T01220015  RH  048%=      5-min Rain = 0
KMC5 191042Z 15004KT 12/01 A2998 RMK A01 T01150012  RH  049%=      5-min Rain = 0
KMC5 191043Z 15004KT 11/01 A2998 RMK A01 T01110012  RH  050%=      5-min Rain = 0
KMC5 191044Z 14005KT 11/02 A2998 RMK A01 T01110015  RH  051%=      5-min Rain = 0
KMC5 191045Z 15004KT 11/02 A2998 RMK A01 T01140016  RH  051%=      5-min Rain = 0
KMC5 191046Z 15004KT 12/02 A2998 RMK A01 T01150016  RH  051%=      5-min Rain = 0
KMC5 191047Z 14005KT 12/02 A2998 RMK A01 T01160017  RH  050%=      5-min Rain = 0
KMC5 191048Z 14005KT 12/02 A2998 RMK A01 T01160016  RH  050%=      5-min Rain = 0
KMC5 191049Z 14004KT 12/02 A2998 RMK A01 T01170017  RH  050%=      5-min Rain = 0
KMC5 191050Z 14004KT 12/02 A2998 RMK A01 T01160016  RH  050%=      5-min Rain = 0
KMC5 191051Z 14004KT 12/02 A2998 RMK A01 T01160016  RH  050%=      5-min Rain = 0
KMC5 191052Z 14004KT 11/01 A2998 RMK A01 T01130013  RH  050%=      5-min Rain = 0
KMC5 191053Z 13004KT 11/01 A2998 RMK A01 T01100012  RH  051%=      5-min Rain = 0
KMC5 191054Z 13004KT 11/01 A2997 RMK A01 T01080013  RH  052%=      5-min Rain = 0
KMC5 191055Z 13004KT 11/01 A2997 RMK A01 T01080014  RH  053%=      5-min Rain = 0
KMC5 191056Z 13005KT 11/02 A2997 RMK A01 T01080016  RH  053%=      5-min Rain = 0
KMC5 191057Z 13005KT 11/02 A2997 RMK A01 T01100017  RH  053%=      5-min Rain = 0
KMC5 191058Z 13004KT 11/02 A2997 RMK A01 T01120017  RH  052%=      5-min Rain = 0
KMC5 191059Z 13004KT 11/02 A2997 RMK A01 T01130017  RH  051%=      5-min Rain = 0
KMC5 191100Z 13004KT 11/02 A2997 RMK A01 T01140017  RH  051%=      5-min Rain = 0
KMC5 191101Z 13004KT 12/02 A2997 RMK A01 T01150017  RH  051%=      5-min Rain = 0
KMC5 191102Z 13004KT 12/02 A2997 RMK A01 T01150017  RH  051%=      5-min Rain = 0
KMC5 191103Z 13004KT 12/02 A2997 RMK A01 T01150017  RH  051%=      5-min Rain = 0
KMC5 191104Z 12005KT 12/02 A2997 RMK A01 T01150017  RH  051%=      5-min Rain = 0
KMC5 191105Z 12005KT 12/02 A2997 RMK A01 T01160017  RH  051%=      5-min Rain = 0
KMC5 191106Z 12005KT 12/02 A2997 RMK A01 T01160017  RH  051%=      5-min Rain = 0
KMC5 191107Z 12005KT 12/02 A2997 RMK A01 T01160017  RH  051%=      5-min Rain = 0
KMC5 191108Z 12005KT 12/02 A2997 RMK A01 T01160018  RH  051%=      5-min Rain = 0
KMC5 191109Z 12005KT 12/02 A2997 RMK A01 T01160017  RH  051%=      5-min Rain = 0
KMC5 191110Z 13004KT 12/02 A2997 RMK A01 T01170017  RH  050%=      5-min Rain = 0
KMC5 191111Z 13004KT 12/02 A2997 RMK A01 T01170017  RH  050%=      5-min Rain = 0
KMC5 191112Z 13005KT 12/02 A2997 RMK A01 T01170018  RH  050%=      5-min Rain = 0
KMC5 191113Z 13005KT 12/02 A2997 RMK A01 T01170017  RH  050%=      5-min Rain = 0
KMC5 191114Z 13005KT 12/02 A2997 RMK A01 T01170017  RH  050%=      5-min Rain = 0
KMC5 191115Z 13005KT 12/02 A2997 RMK A01 T01160017  RH  051%=      5-min Rain = 0
KMC5 191116Z 13005KT 12/02 A2997 RMK A01 T01160017  RH  051%=      5-min Rain = 0
KMC5 191117Z 13005KT 12/02 A2997 RMK A01 T01150017  RH  051%=      5-min Rain = 0
KMC5 191118Z 13005KT 11/02 A2997 RMK A01 T01140017  RH  051%=      5-min Rain = 0
KMC5 191119Z 13006KT 11/02 A2997 RMK A01 T01130016  RH  051%=      5-min Rain = 0
KMC5 191120Z 13006KT 11/02 A2997 RMK A01 T01120016  RH  052%=      5-min Rain = 0
KMC5 191121Z 13006KT 11/02 A2997 RMK A01 T01110016  RH  052%=      5-min Rain = 0
KMC5 191122Z 13006KT 11/02 A2996 RMK A01 T01110016  RH  052%=      5-min Rain = 0
KMC5 191123Z 13006KT 11/02 A2996 RMK A01 T01100016  RH  052%=      5-min Rain = 0
KMC5 191124Z 13006KT 11/02 A2996 RMK A01 T01100017  RH  052%=      5-min Rain = 0
KMC5 191125Z 13006KT 11/02 A2996 RMK A01 T01090016  RH  053%=      5-min Rain = 0
KMC5 191126Z 13006KT 11/02 A2996 RMK A01 T01090016  RH  053%=      5-min Rain = 0
KMC5 191127Z 13006KT 11/02 A2996 RMK A01 T01080017  RH  053%=      5-min Rain = 0
KMC5 191128Z 13006KT 11/02 A2996 RMK A01 T01080017  RH  053%=      5-min Rain = 0
KMC5 191129Z 13006KT 11/02 A2996 RMK A01 T01080016  RH  053%=      5-min Rain = 0
KMC5 191130Z 13006KT 11/02 A2996 RMK A01 T01080016  RH  053%=      5-min Rain = 0
KMC5 191131Z 13006KT 11/02 A2996 RMK A01 T01090017  RH  053%=      5-min Rain = 0
KMC5 191132Z 13007KT 11/02 A2996 RMK A01 T01090017  RH  053%=      5-min Rain = 0
KMC5 191133Z 13007KT 11/02 A2996 RMK A01 T01090017  RH  053%=      5-min Rain = 0
KMC5 191134Z 13006KT 11/02 A2996 RMK A01 T01090017  RH  053%=      5-min Rain = 0
KMC5 191135Z 13006KT 11/02 A2996 RMK A01 T01090017  RH  053%=      5-min Rain = 0
KMC5 191136Z 13007KT 11/02 A2996 RMK A01 T01090018  RH  053%=      5-min Rain = 0
KMC5 191137Z 13006KT 11/02 A2996 RMK A01 T01090017  RH  053%=      5-min Rain = 0
KMC5 191138Z 13006KT 11/02 A2996 RMK A01 T01090017  RH  053%=      5-min Rain = 0
KMC5 191139Z 13006KT 11/02 A2996 RMK A01 T01090017  RH  053%=      5-min Rain = 0
KMC5 191140Z 13006KT 11/02 A2996 RMK A01 T01080017  RH  053%=      5-min Rain = 0
KMC5 191141Z 13006KT 11/02 A2996 RMK A01 T01080017  RH  053%=      5-min Rain = 0
KMC5 191142Z 13006KT 11/02 A2996 RMK A01 T01080017  RH  053%=      5-min Rain = 0
KMC5 191143Z 13006KT 11/02 A2996 RMK A01 T01080017  RH  053%=      5-min Rain = 0
KMC5 191144Z 12006KT 11/02 A2996 RMK A01 T01080017  RH  053%=      5-min Rain = 0
KMC5 191145Z 12006KT 11/02 A2996 RMK A01 T01080017  RH  053%=      5-min Rain = 0
KMC5 191146Z 12006KT 11/02 A2996 RMK A01 T01080017  RH  053%=      5-min Rain = 0
KMC5 191147Z 12006KT 11/02 A2996 RMK A01 T01080017  RH  054%=      5-min Rain = 0
KMC5 191148Z 12006KT 11/02 A2996 RMK A01 T01070017  RH  054%=      5-min Rain = 0
KMC5 191149Z 12006KT 11/02 A2996 RMK A01 T01070018  RH  054%=      5-min Rain = 0
KMC5 191150Z 12006KT 11/02 A2995 RMK A01 T01060018  RH  054%=      5-min Rain = 0
KMC5 191151Z 12006KT 11/02 A2996 RMK A01 T01060018  RH  054%=      5-min Rain = 0
KMC5 191152Z 12006KT 11/02 A2996 RMK A01 T01050018  RH  055%=      5-min Rain = 0
KMC5 191153Z 12006KT 11/02 A2996 RMK A01 T01050018  RH  055%=      5-min Rain = 0
KMC5 191154Z 13006KT 10/02 A2996 RMK A01 T01040018  RH  055%=      5-min Rain = 0
KMC5 191155Z 13006KT 10/02 A2996 RMK A01 T01040018  RH  055%=      5-min Rain = 0
KMC5 191156Z 13006KT 10/02 A2996 RMK A01 T01040018  RH  055%=      5-min Rain = 0
KMC5 191157Z 13006KT 10/02 A2996 RMK A01 T01040018  RH  055%=      5-min Rain = 0
KMC5 191158Z 13006KT 10/02 A2996 RMK A01 T01040018  RH  055%=      5-min Rain = 0
KMC5 191159Z 13006KT 11/02 A2996 RMK A01 T01050018  RH  055%=      5-min Rain = 0
KMC5 191200Z 13005KT 11/02 A2996 RMK A01 T01050018  RH  055%=      5-min Rain = 0
KMC5 191201Z 13005KT 11/02 A2995 RMK A01 T01050018  RH  055%=      5-min Rain = 0
KMC5 191202Z 13005KT 11/02 A2995 RMK A01 T01050018  RH  055%=      5-min Rain = 0
KMC5 191203Z 13005KT 11/02 A2995 RMK A01 T01050018  RH  055%=      5-min Rain = 0
KMC5 191204Z 13005KT 11/02 A2995 RMK A01 T01050019  RH  055%=      5-min Rain = 0
KMC5 191205Z 13005KT 11/02 A2995 RMK A01 T01050018  RH  055%=      5-min Rain = 0
KMC5 191206Z 13006KT 11/02 A2995 RMK A01 T01050018  RH  055%=      5-min Rain = 0
KMC5 191207Z 13006KT 10/02 A2995 RMK A01 T01040018  RH  055%=      5-min Rain = 0
KMC5 191208Z 13006KT 10/02 A2995 RMK A01 T01040018  RH  055%=      5-min Rain = 0
KMC5 191209Z 13006KT 10/02 A2995 RMK A01 T01040019  RH  056%=      5-min Rain = 0
KMC5 191210Z 13006KT 10/02 A2995 RMK A01 T01030019  RH  056%=      5-min Rain = 0
KMC5 191211Z 13006KT 10/02 A2995 RMK A01 T01030019  RH  056%=      5-min Rain = 0
KMC5 191212Z 13006KT 10/02 A2995 RMK A01 T01040019  RH  056%=      5-min Rain = 0
KMC5 191213Z 13006KT 10/02 A2995 RMK A01 T01030019  RH  056%=      5-min Rain = 0
KMC5 191214Z 13005KT 10/02 A2995 RMK A01 T01030019  RH  056%=      5-min Rain = 0
KMC5 191215Z 13006KT 10/02 A2995 RMK A01 T01040019  RH  056%=      5-min Rain = 0
KMC5 191216Z 13006KT 11/02 A2995 RMK A01 T01050019  RH  055%=      5-min Rain = 0
KMC5 191217Z 13006KT 11/02 A2995 RMK A01 T01050019  RH  055%=      5-min Rain = 0
KMC5 191218Z 13005KT 11/02 A2995 RMK A01 T01050019  RH  055%=      5-min Rain = 0
KMC5 191219Z 13006KT 11/02 A2995 RMK A01 T01050019  RH  055%=      5-min Rain = 0
KMC5 191220Z 13006KT 11/02 A2995 RMK A01 T01060019  RH  055%=      5-min Rain = 0
KMC5 191221Z 13006KT 11/02 A2995 RMK A01 T01050019  RH  055%=      5-min Rain = 0
KMC5 191222Z 13006KT 11/02 A2995 RMK A01 T01050019  RH  055%=      5-min Rain = 0
KMC5 191223Z 13005KT 11/02 A2995 RMK A01 T01060019  RH  055%=      5-min Rain = 0
KMC5 191224Z 13005KT 11/02 A2995 RMK A01 T01060019  RH  055%=      5-min Rain = 0
KMC5 191225Z 13006KT 11/02 A2995 RMK A01 T01060019  RH  055%=      5-min Rain = 0
KMC5 191226Z 13006KT 11/02 A2995 RMK A01 T01070019  RH  055%=      5-min Rain = 0
KMC5 191227Z 13006KT 11/02 A2995 RMK A01 T01070019  RH  055%=      5-min Rain = 0
KMC5 191228Z 13005KT 11/02 A2995 RMK A01 T01070019  RH  055%=      5-min Rain = 0
KMC5 191229Z 13006KT 11/02 A2995 RMK A01 T01070019  RH  055%=      5-min Rain = 0
KMC5 191230Z 13006KT 11/02 A2995 RMK A01 T01080020  RH  055%=      5-min Rain = 0
KMC5 191231Z 13006KT 11/02 A2995 RMK A01 T01070020  RH  055%=      5-min Rain = 0
KMC5 191232Z 13006KT 11/02 A2995 RMK A01 T01070020  RH  055%=      5-min Rain = 0
KMC5 191233Z 13006KT 11/02 A2995 RMK A01 T01080020  RH  055%=      5-min Rain = 0
KMC5 191234Z 13005KT 11/02 A2995 RMK A01 T01080020  RH  055%=      5-min Rain = 0
KMC5 191235Z 13006KT 11/02 A2995 RMK A01 T01070020  RH  055%=      5-min Rain = 0
KMC5 191236Z 12006KT 11/02 A2996 RMK A01 T01070020  RH  055%=      5-min Rain = 0
KMC5 191237Z 13005KT 11/02 A2996 RMK A01 T01070020  RH  055%=      5-min Rain = 0
KMC5 191238Z 13005KT 11/02 A2996 RMK A01 T01070020  RH  055%=      5-min Rain = 0
KMC5 191239Z 12006KT 11/02 A2996 RMK A01 T01070020  RH  055%=      5-min Rain = 0
KMC5 191240Z 12006KT 11/02 A2996 RMK A01 T01070020  RH  055%=      5-min Rain = 0
KMC5 191241Z 12006KT 11/02 A2996 RMK A01 T01070020  RH  055%=      5-min Rain = 0
KMC5 191242Z 12006KT 11/02 A2996 RMK A01 T01070021  RH  055%=      5-min Rain = 0
KMC5 191243Z 12006KT 11/02 A2996 RMK A01 T01070020  RH  055%=      5-min Rain = 0
KMC5 191244Z 12006KT 11/02 A2996 RMK A01 T01060020  RH  055%=      5-min Rain = 0
KMC5 191245Z 12006KT 11/02 A2996 RMK A01 T01060020  RH  055%=      5-min Rain = 0
KMC5 191246Z 12006KT 11/02 A2996 RMK A01 T01050020  RH  056%=      5-min Rain = 0
KMC5 191247Z 12006KT 10/02 A2996 RMK A01 T01040020  RH  056%=      5-min Rain = 0
KMC5 191248Z 12006KT 10/02 A2996 RMK A01 T01040020  RH  056%=      5-min Rain = 0
KMC5 191249Z 12006KT 10/02 A2996 RMK A01 T01030020  RH  056%=      5-min Rain = 0
KMC5 191250Z 12005KT 10/02 A2996 RMK A01 T01020020  RH  057%=      5-min Rain = 0
KMC5 191251Z 12005KT 10/02 A2996 RMK A01 T01010020  RH  057%=      5-min Rain = 0
KMC5 191252Z 12005KT 10/02 A2996 RMK A01 T01000020  RH  057%=      5-min Rain = 0
KMC5 191253Z 11005KT 10/02 A2996 RMK A01 T01000021  RH  058%=      5-min Rain = 0
KMC5 191254Z 11005KT 10/02 A2996 RMK A01 T01010021  RH  057%=      5-min Rain = 0
KMC5 191255Z 12005KT 10/02 A2996 RMK A01 T01010021  RH  057%=      5-min Rain = 0
KMC5 191256Z 12006KT 10/02 A2996 RMK A01 T01020021  RH  057%=      5-min Rain = 0
KMC5 191257Z 12005KT 10/02 A2996 RMK A01 T01030021  RH  057%=      5-min Rain = 0
KMC5 191258Z 12006KT 10/02 A2996 RMK A01 T01030021  RH  057%=      5-min Rain = 0
KMC5 191259Z 12005KT 10/02 A2996 RMK A01 T01040021  RH  056%=      5-min Rain = 0
KMC5 191300Z 11005KT 11/02 A2996 RMK A01 T01050021  RH  056%=      5-min Rain = 0
KMC5 191301Z 11005KT 11/02 A2996 RMK A01 T01050021  RH  056%=      5-min Rain = 0
KMC5 191302Z 11005KT 11/02 A2996 RMK A01 T01050021  RH  056%=      5-min Rain = 0
KMC5 191303Z 12006KT 11/02 A2996 RMK A01 T01050021  RH  056%=      5-min Rain = 0
KMC5 191304Z 11006KT 11/02 A2996 RMK A01 T01050021  RH  056%=      5-min Rain = 0
KMC5 191305Z 11005KT 10/02 A2996 RMK A01 T01040021  RH  056%=      5-min Rain = 0
KMC5 191306Z 12006KT 10/02 A2996 RMK A01 T01040022  RH  056%=      5-min Rain = 0
KMC5 191307Z 11006KT 10/02 A2996 RMK A01 T01030021  RH  057%=      5-min Rain = 0
KMC5 191308Z 11005KT 10/02 A2996 RMK A01 T01030022  RH  057%=      5-min Rain = 0
KMC5 191309Z 12006KT 10/02 A2996 RMK A01 T01020021  RH  057%=      5-min Rain = 0
KMC5 191310Z 12007KT 10/02 A2996 RMK A01 T01030022  RH  057%=      5-min Rain = 0
KMC5 191311Z 11006KT 10/02 A2996 RMK A01 T01040023  RH  057%=      5-min Rain = 0
KMC5 191312Z 11006KT 10/02 A2996 RMK A01 T01040022  RH  057%=      5-min Rain = 0
KMC5 191313Z 12005KT 10/02 A2996 RMK A01 T01020022  RH  057%=      5-min Rain = 0
KMC5 191314Z 12005KT 10/02 A2996 RMK A01 T01010022  RH  058%=      5-min Rain = 0
KMC5 191315Z 12006KT 10/02 A2996 RMK A01 T01010022  RH  058%=      5-min Rain = 0
KMC5 191316Z 12005KT 10/02 A2996 RMK A01 T01020022  RH  058%=      5-min Rain = 0
KMC5 191317Z 12006KT 10/02 A2996 RMK A01 T01010021  RH  057%=      5-min Rain = 0
KMC5 191318Z 12005KT 10/02 A2996 RMK A01 T01020021  RH  057%=      5-min Rain = 0
KMC5 191319Z 12005KT 10/02 A2996 RMK A01 T01020021  RH  057%=      5-min Rain = 0
KMC5 191320Z 12006KT 10/02 A2996 RMK A01 T01020021  RH  057%=      5-min Rain = 0
KMC5 191321Z 12006KT 10/02 A2996 RMK A01 T01010021  RH  057%=      5-min Rain = 0
KMC5 191322Z 12006KT 10/02 A2996 RMK A01 T01020022  RH  057%=      5-min Rain = 0
KMC5 191323Z 12006KT 10/02 A2996 RMK A01 T01020022  RH  057%=      5-min Rain = 0
KMC5 191324Z 13006KT 10/02 A2996 RMK A01 T01020022  RH  057%=      5-min Rain = 0
KMC5 191325Z 12005KT 10/02 A2996 RMK A01 T01030022  RH  057%=      5-min Rain = 0
KMC5 191326Z 13007KT 10/02 A2996 RMK A01 T01030022  RH  057%=      5-min Rain = 0
KMC5 191327Z 14006KT 10/02 A2996 RMK A01 T01040022  RH  057%=      5-min Rain = 0
KMC5 191328Z 13005KT 11/02 A2996 RMK A01 T01050022  RH  056%=      5-min Rain = 0
KMC5 191329Z 13006KT 11/02 A2996 RMK A01 T01050022  RH  056%=      5-min Rain = 0
KMC5 191330Z 13005KT 10/02 A2996 RMK A01 T01040021  RH  056%=      5-min Rain = 0
KMC5 191331Z 13006KT 11/02 A2996 RMK A01 T01050022  RH  056%=      5-min Rain = 0
KMC5 191332Z 13006KT 11/02 A2996 RMK A01 T01050022  RH  056%=      5-min Rain = 0
KMC5 191333Z 13006KT 11/02 A2996 RMK A01 T01050022  RH  056%=      5-min Rain = 0
KMC5 191334Z 13006KT 11/02 A2996 RMK A01 T01050022  RH  056%=      5-min Rain = 0
KMC5 191335Z 13006KT 11/02 A2996 RMK A01 T01050022  RH  056%=      5-min Rain = 0
KMC5 191336Z 13006KT 11/02 A2996 RMK A01 T01050022  RH  056%=      5-min Rain = 0
KMC5 191337Z 14005KT 11/02 A2996 RMK A01 T01060022  RH  056%=      5-min Rain = 0
KMC5 191338Z 14007KT 11/02 A2996 RMK A01 T01060022  RH  056%=      5-min Rain = 0
KMC5 191339Z 14006KT 11/02 A2996 RMK A01 T01060023  RH  056%=      5-min Rain = 0
KMC5 191340Z 13005KT 11/02 A2996 RMK A01 T01080023  RH  056%=      5-min Rain = 0
KMC5 191341Z 14005KT 11/02 A2996 RMK A01 T01090023  RH  055%=      5-min Rain = 0
KMC5 191342Z 14006KT 11/02 A2996 RMK A01 T01100023  RH  055%=      5-min Rain = 0
KMC5 191343Z 14006KT 11/02 A2996 RMK A01 T01100023  RH  055%=      5-min Rain = 0
KMC5 191344Z 14006KT 11/02 A2996 RMK A01 T01100023  RH  055%=      5-min Rain = 0
KMC5 191345Z 14006KT 11/02 A2996 RMK A01 T01100024  RH  055%=      5-min Rain = 0
KMC5 191346Z 14006KT 11/02 A2996 RMK A01 T01100024  RH  055%=      5-min Rain = 0
KMC5 191347Z 14005KT 11/02 A2996 RMK A01 T01100024  RH  056%=      5-min Rain = 0
KMC5 191348Z 14004KT 11/03 A2996 RMK A01 T01100025  RH  056%=      5-min Rain = 0
KMC5 191349Z 14005KT 11/02 A2996 RMK A01 T01100024  RH  055%=      5-min Rain = 0
KMC5 191350Z 14006KT 11/03 A2996 RMK A01 T01110025  RH  055%=      5-min Rain = 0
KMC5 191351Z 14006KT 11/02 A2996 RMK A01 T01110024  RH  055%=      5-min Rain = 0
KMC5 191352Z 14006KT 11/02 A2996 RMK A01 T01120024  RH  055%=      5-min Rain = 0
KMC5 191353Z 14006KT 11/02 A2996 RMK A01 T01120024  RH  054%=      5-min Rain = 0
KMC5 191354Z 14006KT 11/02 A2996 RMK A01 T01140024  RH  054%=      5-min Rain = 0
KMC5 191355Z 15006KT 12/03 A2996 RMK A01 T01160025  RH  054%=      5-min Rain = 0
KMC5 191356Z 15006KT 12/03 A2996 RMK A01 T01170025  RH  053%=      5-min Rain = 0
KMC5 191357Z 15005KT 12/03 A2996 RMK A01 T01170025  RH  053%=      5-min Rain = 0
KMC5 191358Z 16005KT 12/03 A2996 RMK A01 T01180025  RH  053%=      5-min Rain = 0
KMC5 191359Z 16005KT 12/02 A2996 RMK A01 T01170024  RH  053%=      5-min Rain = 0
KMC5 191400Z 16005KT 12/03 A2996 RMK A01 T01180025  RH  053%=      5-min Rain = 0
KMC5 191401Z 16006KT 12/02 A2996 RMK A01 T01180024  RH  052%=      5-min Rain = 0
KMC5 191402Z 16005KT 12/02 A2996 RMK A01 T01200024  RH  052%=      5-min Rain = 0
KMC5 191403Z 17005KT 12/03 A2996 RMK A01 T01210025  RH  052%=      5-min Rain = 0
KMC5 191404Z 17005KT 12/03 A2996 RMK A01 T01210025  RH  052%=      5-min Rain = 0
KMC5 191405Z 16006KT 12/03 A2996 RMK A01 T01210025  RH  052%=      5-min Rain = 0
KMC5 191406Z 17006KT 12/02 A2996 RMK A01 T01210024  RH  052%=      5-min Rain = 0
KMC5 191407Z 16006KT 12/03 A2996 RMK A01 T01210025  RH  052%=      5-min Rain = 0
KMC5 191408Z 17006KT 12/03 A2996 RMK A01 T01210025  RH  052%=      5-min Rain = 0
KMC5 191409Z 17006KT 12/03 A2996 RMK A01 T01210025  RH  052%=      5-min Rain = 0
KMC5 191410Z 17005KT 12/03 A2996 RMK A01 T01210025  RH  052%=      5-min Rain = 0
KMC5 191411Z 17006KT 12/03 A2996 RMK A01 T01210026  RH  052%=      5-min Rain = 0
KMC5 191412Z 16005KT 12/03 A2996 RMK A01 T01220025  RH  052%=      5-min Rain = 0
KMC5 191413Z 17005KT 12/03 A2996 RMK A01 T01210026  RH  052%=      5-min Rain = 0
KMC5 191414Z 16005KT 12/03 A2996 RMK A01 T01210026  RH  052%=      5-min Rain = 0
KMC5 191415Z 16006KT 12/03 A2996 RMK A01 T01220026  RH  052%=      5-min Rain = 0
KMC5 191416Z 16006KT 12/03 A2996 RMK A01 T01220026  RH  052%=      5-min Rain = 0
KMC5 191417Z 16005KT 12/03 A2996 RMK A01 T01230026  RH  052%=      5-min Rain = 0
KMC5 191418Z 16006KT 12/03 A2996 RMK A01 T01230026  RH  051%=      5-min Rain = 0
KMC5 191419Z 16005KT 12/03 A2996 RMK A01 T01240026  RH  051%=      5-min Rain = 0
KMC5 191420Z 16005KT 12/03 A2996 RMK A01 T01240027  RH  052%=      5-min Rain = 0
KMC5 191421Z 16006KT 13/03 A2996 RMK A01 T01250028  RH  052%=      5-min Rain = 0
KMC5 191422Z 17006KT 13/03 A2996 RMK A01 T01250027  RH  051%=      5-min Rain = 0
KMC5 191423Z 16007KT 13/03 A2996 RMK A01 T01260027  RH  051%=      5-min Rain = 0
KMC5 191424Z 17006KT 13/03 A2996 RMK A01 T01260026  RH  050%=      5-min Rain = 0
KMC5 191425Z 17006KT 13/03 A2996 RMK A01 T01270027  RH  051%=      5-min Rain = 0
KMC5 191426Z 17006KT 13/03 A2996 RMK A01 T01270027  RH  051%=      5-min Rain = 0
KMC5 191427Z 16007KT 13/03 A2996 RMK A01 T01270027  RH  050%=      5-min Rain = 0
KMC5 191428Z 16007KT 13/03 A2996 RMK A01 T01280027  RH  050%=      5-min Rain = 0
KMC5 191429Z 16005KT 13/03 A2996 RMK A01 T01280026  RH  050%=      5-min Rain = 0
KMC5 191430Z 16007KT 13/03 A2996 RMK A01 T01280027  RH  050%=      5-min Rain = 0
KMC5 191431Z 16007KT 13/03 A2996 RMK A01 T01290027  RH  050%=      5-min Rain = 0
KMC5 191432Z 16007KT 13/03 A2996 RMK A01 T01290026  RH  049%=      5-min Rain = 0
KMC5 191433Z 15006KT 13/03 A2996 RMK A01 T01300027  RH  049%=      5-min Rain = 0
KMC5 191434Z 16007KT 13/03 A2996 RMK A01 T01300027  RH  049%=      5-min Rain = 0
KMC5 191435Z 16006KT 13/03 A2996 RMK A01 T01310027  RH  049%=      5-min Rain = 0
KMC5 191436Z 16005KT 13/03 A2996 RMK A01 T01320028  RH  049%=      5-min Rain = 0
KMC5 191437Z 16007KT 13/03 A2996 RMK A01 T01330028  RH  049%=      5-min Rain = 0
KMC5 191438Z 16006KT 13/03 A2996 RMK A01 T01330027  RH  048%=      5-min Rain = 0
KMC5 191439Z 16006KT 13/03 A2996 RMK A01 T01330028  RH  049%=      5-min Rain = 0
KMC5 191440Z 16006KT 13/03 A2996 RMK A01 T01340028  RH  048%=      5-min Rain = 0
KMC5 191441Z 16007KT 13/03 A2996 RMK A01 T01340027  RH  048%=      5-min Rain = 0
KMC5 191442Z 16006KT 14/03 A2996 RMK A01 T01350027  RH  048%=      5-min Rain = 0
KMC5 191443Z 16008KT 14/03 A2996 RMK A01 T01350027  RH  048%=      5-min Rain = 0
KMC5 191444Z 16008KT 14/03 A2996 RMK A01 T01350026  RH  048%=      5-min Rain = 0
KMC5 191445Z 17008KT 14/03 A2996 RMK A01 T01350027  RH  048%=      5-min Rain = 0
KMC5 191446Z 17007KT 14/03 A2996 RMK A01 T01360027  RH  048%=      5-min Rain = 0
KMC5 191447Z 17007KT 14/03 A2996 RMK A01 T01360026  RH  047%=      5-min Rain = 0
KMC5 191448Z 17007KT 14/03 A2996 RMK A01 T01360026  RH  047%=      5-min Rain = 0
KMC5 191449Z 17008KT 14/03 A2996 RMK A01 T01370027  RH  047%=      5-min Rain = 0
KMC5 191450Z 17008KT 14/03 A2996 RMK A01 T01370025  RH  047%=      5-min Rain = 0
KMC5 191451Z 17007KT 14/03 A2996 RMK A01 T01380026  RH  047%=      5-min Rain = 0
KMC5 191452Z 17007KT 14/03 A2996 RMK A01 T01390026  RH  046%=      5-min Rain = 0
KMC5 191453Z 18008KT 14/03 A2996 RMK A01 T01400026  RH  046%=      5-min Rain = 0
KMC5 191454Z 17007KT 14/03 A2996 RMK A01 T01400025  RH  046%=      5-min Rain = 0
KMC5 191455Z 16009KT 14/03 A2996 RMK A01 T01400026  RH  046%=      5-min Rain = 0
KMC5 191456Z 16008KT 14/03 A2996 RMK A01 T01410025  RH  046%=      5-min Rain = 0
KMC5 191457Z 17008KT 14/03 A2996 RMK A01 T01410026  RH  046%=      5-min Rain = 0
KMC5 191458Z 16009KT 14/03 A2996 RMK A01 T01420025  RH  045%=      5-min Rain = 0
KMC5 191459Z 16008KT 14/03 A2996 RMK A01 T01430026  RH  045%=      5-min Rain = 0
KMC5 191500Z 16008KT 14/03 A2996 RMK A01 T01440025  RH  045%=      5-min Rain = 0
KMC5 191501Z 16009KT 14/03 A2996 RMK A01 T01440025  RH  044%=      5-min Rain = 0
KMC5 191502Z 16010KT 15/02 A2996 RMK A01 T01450024  RH  044%=      5-min Rain = 0
KMC5 191503Z 16010KT 14/02 A2996 RMK A01 T01440024  RH  044%=      5-min Rain = 0
KMC5 191504Z 16011KT 14/02 A2996 RMK A01 T01440024  RH  044%=      5-min Rain = 0
KMC5 191505Z 16010KT 14/03 A2996 RMK A01 T01440025  RH  045%=      5-min Rain = 0
KMC5 191506Z 16010KT 15/03 A2996 RMK A01 T01460025  RH  044%=      5-min Rain = 0
KMC5 191507Z 16009KT 15/02 A2996 RMK A01 T01460024  RH  044%=      5-min Rain = 0
KMC5 191508Z 16009KT 15/03 A2996 RMK A01 T01470025  RH  044%=      5-min Rain = 0
KMC5 191509Z 15010KT 15/03 A2996 RMK A01 T01480025  RH  043%=      5-min Rain = 0
KMC5 191510Z 17009KT 15/03 A2996 RMK A01 T01470025  RH  044%=      5-min Rain = 0
KMC5 191511Z 15011KT 15/02 A2996 RMK A01 T01470023  RH  043%=      5-min Rain = 0
KMC5 191512Z 16010KT 15/02 A2996 RMK A01 T01470023  RH  043%=      5-min Rain = 0
KMC5 191513Z 15008KT 15/02 A2996 RMK A01 T01470024  RH  043%=      5-min Rain = 0
KMC5 191514Z 16010KT 15/02 A2996 RMK A01 T01490024  RH  043%=      5-min Rain = 0
KMC5 191515Z 15010KT 15/02 A2996 RMK A01 T01490023  RH  043%=      5-min Rain = 0
KMC5 191516Z 15008KT 15/02 A2996 RMK A01 T01500023  RH  042%=      5-min Rain = 0
KMC5 191517Z 16009KT 15/02 A2996 RMK A01 T01500024  RH  042%=      5-min Rain = 0
KMC5 191518Z 16010KT 15/02 A2996 RMK A01 T01500023  RH  042%=      5-min Rain = 0
KMC5 191519Z 15009KT 15/02 A2996 RMK A01 T01500023  RH  042%=      5-min Rain = 0
KMC5 191520Z 15010KT 15/02 A2996 RMK A01 T01500023  RH  042%=      5-min Rain = 0
KMC5 191521Z 16010KT 15/02 A2996 RMK A01 T01500022  RH  042%=      5-min Rain = 0
KMC5 191522Z 15009KT 15/02 A2996 RMK A01 T01500023  RH  042%=      5-min Rain = 0
KMC5 191523Z 15010KT 15/02 A2996 RMK A01 T01510022  RH  042%=      5-min Rain = 0
KMC5 191524Z 16010KT 15/02 A2996 RMK A01 T01510022  RH  042%=      5-min Rain = 0
KMC5 191525Z 16010KT 15/02 A2996 RMK A01 T01500022  RH  042%=      5-min Rain = 0
KMC5 191526Z 15009KT 15/02 A2996 RMK A01 T01500022  RH  042%=      5-min Rain = 0
KMC5 191527Z 14009KT 15/02 A2996 RMK A01 T01510024  RH  042%=      5-min Rain = 0
KMC5 191528Z 14010KT 15/02 A2996 RMK A01 T01530023  RH  041%=      5-min Rain = 0
KMC5 191529Z 14010KT 15/02 A2996 RMK A01 T01530022  RH  041%=      5-min Rain = 0
KMC5 191530Z 14010KT 15/02 A2996 RMK A01 T01540022  RH  041%=      5-min Rain = 0
KMC5 191531Z 14009G14KT 16/02 A2996 RMK A01 T01550023  RH  041%=      5-min Rain = 0
KMC5 191532Z 15011KT 16/02 A2996 RMK A01 T01570022  RH  040%=      5-min Rain = 0
KMC5 191533Z 13011KT 16/02 A2996 RMK A01 T01560020  RH  040%=      5-min Rain = 0
KMC5 191534Z 15011KT 16/02 A2996 RMK A01 T01550020  RH  040%=      5-min Rain = 0
KMC5 191535Z 14012KT 16/02 A2996 RMK A01 T01550020  RH  040%=      5-min Rain = 0
KMC5 191536Z 15010KT 16/02 A2996 RMK A01 T01560021  RH  040%=      5-min Rain = 0
KMC5 191537Z 14010KT 16/02 A2996 RMK A01 T01570019  RH  039%=      5-min Rain = 0
KMC5 191538Z 14012KT 16/02 A2996 RMK A01 T01570019  RH  039%=      5-min Rain = 0
KMC5 191539Z 14011KT 16/02 A2996 RMK A01 T01570018  RH  039%=      5-min Rain = 0
KMC5 191540Z 15009KT 16/02 A2996 RMK A01 T01580019  RH  039%=      5-min Rain = 0
KMC5 191541Z 14010KT 16/02 A2996 RMK A01 T01600020  RH  039%=      5-min Rain = 0
KMC5 191542Z 14011KT 16/02 A2996 RMK A01 T01610019  RH  038%=      5-min Rain = 0
KMC5 191543Z 14010KT 16/02 A2996 RMK A01 T01600018  RH  038%=      5-min Rain = 0
KMC5 191544Z 15009KT 16/02 A2996 RMK A01 T01590020  RH  039%=      5-min Rain = 0
KMC5 191545Z 14009KT 16/02 A2996 RMK A01 T01600021  RH  039%=      5-min Rain = 0
KMC5 191546Z 14010KT 16/02 A2996 RMK A01 T01630022  RH  039%=      5-min Rain = 0
KMC5 191547Z 13010KT 16/02 A2996 RMK A01 T01630020  RH  038%=      5-min Rain = 0
KMC5 191548Z 13009KT 16/02 A2996 RMK A01 T01630020  RH  038%=      5-min Rain = 0
KMC5 191549Z 14009KT 16/02 A2996 RMK A01 T01630020  RH  038%=      5-min Rain = 0
KMC5 191550Z 14010KT 16/02 A2996 RMK A01 T01630021  RH  038%=      5-min Rain = 0
KMC5 191551Z 14009KT 16/02 A2996 RMK A01 T01640020  RH  038%=      5-min Rain = 0
KMC5 191552Z 14010KT 16/02 A2996 RMK A01 T01640020  RH  038%=      5-min Rain = 0
KMC5 191553Z 14010KT 16/02 A2996 RMK A01 T01640020  RH  038%=      5-min Rain = 0
KMC5 191554Z 14010KT 16/02 A2996 RMK A01 T01640020  RH  038%=      5-min Rain = 0
KMC5 191555Z 14009KT 16/02 A2996 RMK A01 T01640019  RH  038%=      5-min Rain = 0
KMC5 191556Z 14008KT 16/02 A2996 RMK A01 T01640020  RH  038%=      5-min Rain = 0
KMC5 191557Z 15009KT 17/02 A2996 RMK A01 T01660020  RH  038%=      5-min Rain = 0
KMC5 191558Z 14010KT 17/02 A2996 RMK A01 T01650020  RH  038%=      5-min Rain = 0
KMC5 191559Z 15007KT 16/02 A2996 RMK A01 T01640019  RH  038%=      5-min Rain = 0
KMC5 191600Z 15011KT 16/02 A2996 RMK A01 T01640020  RH  038%=      5-min Rain = 0
KMC5 191601Z 16010KT 17/02 A2996 RMK A01 T01650019  RH  037%=      5-min Rain = 0
KMC5 191602Z 14009KT 16/02 A2996 RMK A01 T01640020  RH  038%=      5-min Rain = 0
KMC5 191603Z 14011KT 17/02 A2996 RMK A01 T01670022  RH  038%=      5-min Rain = 0
KMC5 191604Z 14010KT 17/02 A2996 RMK A01 T01680020  RH  037%=      5-min Rain = 0
KMC5 191605Z 16010KT 17/02 A2996 RMK A01 T01670019  RH  037%=      5-min Rain = 0
KMC5 191606Z 16008KT 17/02 A2996 RMK A01 T01670020  RH  037%=      5-min Rain = 0
KMC5 191607Z 16008KT 17/02 A2996 RMK A01 T01680021  RH  037%=      5-min Rain = 0
KMC5 191608Z 17010KT 17/02 A2996 RMK A01 T01700020  RH  036%=      5-min Rain = 0
KMC5 191609Z 16008KT 17/02 A2996 RMK A01 T01700017  RH  036%=      5-min Rain = 0
KMC5 191610Z 15008KT 17/02 A2996 RMK A01 T01700016  RH  035%=      5-min Rain = 0
KMC5 191611Z 15008KT 17/02 A2996 RMK A01 T01720019  RH  036%=      5-min Rain = 0
KMC5 191612Z 14009KT 18/02 A2996 RMK A01 T01750021  RH  036%=      5-min Rain = 0
KMC5 191613Z 14011KT 18/02 A2996 RMK A01 T01750018  RH  035%=      5-min Rain = 0
KMC5 191614Z 14010KT 17/02 A2996 RMK A01 T01710016  RH  035%=      5-min Rain = 0
KMC5 191615Z 14011KT 17/02 A2996 RMK A01 T01690017  RH  036%=      5-min Rain = 0
KMC5 191616Z 14010KT 17/02 A2996 RMK A01 T01690016  RH  036%=      5-min Rain = 0
KMC5 191617Z 15009KT 17/02 A2995 RMK A01 T01680018  RH  036%=      5-min Rain = 0
KMC5 191618Z 15009KT 17/02 A2996 RMK A01 T01700017  RH  036%=      5-min Rain = 0
KMC5 191619Z 14007KT 17/02 A2995 RMK A01 T01700020  RH  036%=      5-min Rain = 0
KMC5 191620Z 15008KT 18/02 A2996 RMK A01 T01750022  RH  036%=      5-min Rain = 0
KMC5 191621Z 15009KT 18/02 A2995 RMK A01 T01760019  RH  035%=      5-min Rain = 0
KMC5 191622Z 16010KT 18/02 A2995 RMK A01 T01760018  RH  035%=      5-min Rain = 0
KMC5 191623Z 15009KT 17/02 A2995 RMK A01 T01740017  RH  035%=      5-min Rain = 0
KMC5 191624Z 16007KT 17/02 A2995 RMK A01 T01730018  RH  035%=      5-min Rain = 0
KMC5 191625Z 16009KT 17/02 A2995 RMK A01 T01730018  RH  035%=      5-min Rain = 0
KMC5 191626Z 15009KT 17/02 A2995 RMK A01 T01730019  RH  036%=      5-min Rain = 0
KMC5 191627Z 17008KT 18/02 A2995 RMK A01 T01770021  RH  035%=      5-min Rain = 0
KMC5 191628Z 17010KT 18/02 A2995 RMK A01 T01790016  RH  033%=      5-min Rain = 0
KMC5 191629Z 18010KT 18/01 A2995 RMK A01 T01760014  RH  034%=      5-min Rain = 0
KMC5 191630Z 15008KT 18/02 A2995 RMK A01 T01750017  RH  035%=      5-min Rain = 0
KMC5 191631Z 15008KT 18/02 A2995 RMK A01 T01770019  RH  035%=      5-min Rain = 0
KMC5 191632Z 16009KT 18/02 A2995 RMK A01 T01790020  RH  034%=      5-min Rain = 0
KMC5 191633Z 17010KT 18/02 A2995 RMK A01 T01800016  RH  033%=      5-min Rain = 0
KMC5 191634Z 18010KT 18/02 A2995 RMK A01 T01770015  RH  034%=      5-min Rain = 0
KMC5 191635Z 18011KT 18/02 A2995 RMK A01 T01780016  RH  034%=      5-min Rain = 0
KMC5 191636Z 18011KT 18/01 A2995 RMK A01 T01780014  RH  033%=      5-min Rain = 0
KMC5 191637Z 14009KT 18/02 A2995 RMK A01 T01770017  RH  034%=      5-min Rain = 0
KMC5 191638Z 16011KT 18/02 A2995 RMK A01 T01790016  RH  034%=      5-min Rain = 0
KMC5 191639Z 17011KT 18/01 A2995 RMK A01 T01800014  RH  033%=      5-min Rain = 0
KMC5 191640Z 17011KT 18/01 A2995 RMK A01 T01790013  RH  033%=      5-min Rain = 0
KMC5 191641Z 15011KT 18/01 A2995 RMK A01 T01790014  RH  033%=      5-min Rain = 0
KMC5 191642Z 16012KT 18/02 A2995 RMK A01 T01800015  RH  033%=      5-min Rain = 0
KMC5 191643Z 15012KT 18/02 A2995 RMK A01 T01800016  RH  033%=      5-min Rain = 0
KMC5 191644Z 15012KT 18/01 A2995 RMK A01 T01810014  RH  033%=      5-min Rain = 0
KMC5 191645Z 16012KT 18/01 A2995 RMK A01 T01820014  RH  033%=      5-min Rain = 0
KMC5 191646Z 16013KT 18/01 A2995 RMK A01 T01840014  RH  032%=      5-min Rain = 0
KMC5 191647Z 16013KT 18/01 A2995 RMK A01 T01830014  RH  032%=      5-min Rain = 0
KMC5 191648Z 16014KT 18/01 A2995 RMK A01 T01830013  RH  032%=      5-min Rain = 0
KMC5 191649Z 17013KT 18/01 A2995 RMK A01 T01830013  RH  032%=      5-min Rain = 0
KMC5 191650Z 17011KT 19/01 A2994 RMK A01 T01850014  RH  032%=      5-min Rain = 0
KMC5 191651Z 16012KT 19/01 A2994 RMK A01 T01870013  RH  031%=      5-min Rain = 0
KMC5 191652Z 16012G17KT 19/01 A2994 RMK A01 T01880013  RH  031%=      5-min Rain = 0
KMC5 191653Z 17013G18KT 19/01 A2994 RMK A01 T01880014  RH  031%=      5-min Rain = 0
KMC5 191654Z 17015KT 19/01 A2994 RMK A01 T01870013  RH  031%=      5-min Rain = 0
KMC5 191655Z 17015KT 19/01 A2994 RMK A01 T01860011  RH  031%=      5-min Rain = 0
KMC5 191656Z 18013KT 18/01 A2994 RMK A01 T01830011  RH  031%=      5-min Rain = 0
KMC5 191657Z 18016KT 18/01 A2994 RMK A01 T01840010  RH  031%=      5-min Rain = 0
KMC5 191658Z 17015KT 19/01 A2994 RMK A01 T01860011  RH  031%=      5-min Rain = 0
KMC5 191659Z 18012KT 19/01 A2994 RMK A01 T01890014  RH  031%=      5-min Rain = 0
KMC5 191700Z 17016KT 19/01 A2994 RMK A01 T01910013  RH  030%=      5-min Rain = 0
KMC5 191701Z 17017KT 19/01 A2994 RMK A01 T01890012  RH  031%=      5-min Rain = 0
KMC5 191702Z 18015KT 19/01 A2994 RMK A01 T01870011  RH  031%=      5-min Rain = 0
KMC5 191703Z 18013KT 19/01 A2994 RMK A01 T01870014  RH  031%=      5-min Rain = 0
KMC5 191704Z 16013KT 19/01 A2994 RMK A01 T01900014  RH  031%=      5-min Rain = 0
KMC5 191705Z 16014KT 19/02 A2994 RMK A01 T01910015  RH  031%=      5-min Rain = 0
KMC5 191706Z 17015KT 19/02 A2994 RMK A01 T01930018  RH  031%=      5-min Rain = 0
KMC5 191707Z 17015KT 19/02 A2994 RMK A01 T01910017  RH  031%=      5-min Rain = 0
KMC5 191708Z 16014KT 19/02 A2994 RMK A01 T01910018  RH  032%=      5-min Rain = 0
KMC5 191709Z 16015KT 19/02 A2994 RMK A01 T01930018  RH  031%=      5-min Rain = 0
KMC5 191710Z 16017KT 19/02 A2993 RMK A01 T01900017  RH  031%=      5-min Rain = 0
KMC5 191711Z 17015KT 19/02 A2993 RMK A01 T01890016  RH  031%=      5-min Rain = 0
KMC5 191712Z 17015KT 19/02 A2993 RMK A01 T01890017  RH  032%=      5-min Rain = 0
KMC5 191713Z 18014KT 19/02 A2993 RMK A01 T01900018  RH  032%=      5-min Rain = 0
KMC5 191714Z 18016KT 19/02 A2993 RMK A01 T01910018  RH  031%=      5-min Rain = 0
KMC5 191715Z 17016G21KT 19/02 A2993 RMK A01 T01910018  RH  031%=      5-min Rain = 0
KMC5 191716Z 17018KT 19/02 A2993 RMK A01 T01900016  RH  031%=      5-min Rain = 0
KMC5 191717Z 18013KT 19/02 A2993 RMK A01 T01890017  RH  032%=      5-min Rain = 0
KMC5 191718Z 18013G18KT 19/02 A2993 RMK A01 T01910020  RH  032%=      5-min Rain = 0
KMC5 191719Z 16013KT 19/02 A2993 RMK A01 T01930020  RH  031%=      5-min Rain = 0
KMC5 191720Z 16014KT 19/02 A2993 RMK A01 T01940019  RH  031%=      5-min Rain = 0
KMC5 191721Z 17012KT 20/02 A2993 RMK A01 T01950019  RH  031%=      5-min Rain = 0
KMC5 191722Z 17012KT 20/02 A2993 RMK A01 T01950020  RH  031%=      5-min Rain = 0
KMC5 191723Z 17013KT 20/02 A2993 RMK A01 T01950022  RH  031%=      5-min Rain = 0
KMC5 191724Z 18016KT 20/02 A2993 RMK A01 T01970021  RH  031%=      5-min Rain = 0
KMC5 191725Z 17017G22KT 20/02 A2993 RMK A01 T01950016  RH  030%=      5-min Rain = 0
KMC5 191726Z 16014G20KT 20/02 A2993 RMK A01 T01950016  RH  030%=      5-min Rain = 0
KMC5 191727Z 17014KT 20/02 A2993 RMK A01 T01980017  RH  030%=      5-min Rain = 0
KMC5 191728Z 16013G19KT 20/02 A2993 RMK A01 T02000018  RH  030%=      5-min Rain = 0
KMC5 191729Z 17019KT 20/01 A2992 RMK A01 T02020014  RH  029%=      5-min Rain = 0
KMC5 191730Z 17017KT 20/01 A2992 RMK A01 T02010011  RH  028%=      5-min Rain = 0
KMC5 191731Z 18015KT 20/01 A2992 RMK A01 T02000012  RH  028%=      5-min Rain = 0
KMC5 191732Z 16016KT 20/01 A2992 RMK A01 T02010013  RH  029%=      5-min Rain = 0
KMC5 191733Z 15018KT 20/01 A2992 RMK A01 T02020014  RH  029%=      5-min Rain = 0
KMC5 191734Z 16015KT 20/01 A2992 RMK A01 T02000014  RH  029%=      5-min Rain = 0
KMC5 191735Z 16012KT 20/02 A2992 RMK A01 T01990015  RH  029%=      5-min Rain = 0
KMC5 191736Z 15015G22KT 20/02 A2992 RMK A01 T02030017  RH  029%=      5-min Rain = 0
KMC5 191737Z 15019KT 21/01 A2992 RMK A01 T02050013  RH  028%=      5-min Rain = 0
KMC5 191738Z 16015KT 21/01 A2992 RMK A01 T02050011  RH  027%=      5-min Rain = 0
KMC5 191739Z 16017KT 21/01 A2992 RMK A01 T02050010  RH  027%=      5-min Rain = 0
KMC5 191740Z 15017KT 21/01 A2992 RMK A01 T02060008  RH  027%=      5-min Rain = 0
KMC5 191741Z 16015KT 21/01 A2992 RMK A01 T02050007  RH  027%=      5-min Rain = 0
KMC5 191742Z 17014KT 21/01 A2992 RMK A01 T02080009  RH  027%=      5-min Rain = 0
KMC5 191743Z 16014KT 21/01 A2992 RMK A01 T02110010  RH  026%=      5-min Rain = 0
KMC5 191744Z 16016KT 21/01 A2992 RMK A01 T02140008  RH  025%=      5-min Rain = 0
KMC5 191745Z 16016KT 21/01 A2992 RMK A01 T02130007  RH  025%=      5-min Rain = 0
KMC5 191746Z 15016KT 21/01 A2992 RMK A01 T02120006  RH  025%=      5-min Rain = 0
KMC5 191747Z 16017KT 21/01 A2992 RMK A01 T02120007  RH  026%=      5-min Rain = 0
KMC5 191748Z 15018KT 21/01 A2992 RMK A01 T02130006  RH  025%=      5-min Rain = 0
KMC5 191749Z 17016G21KT 21/01 A2992 RMK A01 T02120006  RH  025%=      5-min Rain = 0
KMC5 191750Z 17017KT 21/01 A2991 RMK A01 T02120005  RH  025%=      5-min Rain = 0
KMC5 191751Z 17019KT 21/00 A2991 RMK A01 T02090004  RH  025%=      5-min Rain = 0
KMC5 191752Z 17015KT 21/01 A2991 RMK A01 T02090007  RH  026%=      5-min Rain = 0
KMC5 191753Z 17019KT 21/01 A2991 RMK A01 T02120008  RH  026%=      5-min Rain = 0
KMC5 191754Z 16018KT 21/01 A2991 RMK A01 T02130006  RH  025%=      5-min Rain = 0
KMC5 191755Z 18017KT 21/01 A2991 RMK A01 T02120006  RH  025%=      5-min Rain = 0
KMC5 191756Z 18017KT 21/00 A2991 RMK A01 T02130004  RH  025%=      5-min Rain = 0
KMC5 191757Z 17016KT 21/01 A2991 RMK A01 T02130005  RH  025%=      5-min Rain = 0
KMC5 191758Z 18020KT 22/01 A2991 RMK A01 T02150005  RH  025%=      5-min Rain = 0
KMC5 191759Z 18020KT 21/01 A2991 RMK A01 T02140005  RH  025%=      5-min Rain = 0
KMC5 191800Z 16016KT 22/01 A2991 RMK A01 T02150006  RH  025%=      5-min Rain = 0
KMC5 191801Z 16017KT 22/01 A2991 RMK A01 T02150005  RH  025%=      5-min Rain = 0
KMC5 191802Z 17018G23KT 22/00 A2991 RMK A01 T02150004  RH  025%=      5-min Rain = 0
KMC5 191803Z 17020G26KT 21/00 A2991 RMK A01 T02130004  RH  025%=      5-min Rain = 0
KMC5 191804Z 17020KT 21/00 A2991 RMK A01 T02130003  RH  025%=      5-min Rain = 0
KMC5 191805Z 18021KT 21/00 A2991 RMK A01 T02120004  RH  025%=      5-min Rain = 0
KMC5 191806Z 17018G23KT 21/00 A2991 RMK A01 T02110003  RH  025%=      5-min Rain = 0
KMC5 191807Z 17019KT 21/00 A2991 RMK A01 T02110004  RH  025%=      5-min Rain = 0
KMC5 191808Z 17021KT 21/00 A2991 RMK A01 T02120004  RH  025%=      5-min Rain = 0
KMC5 191809Z 17018KT 21/00 A2991 RMK A01 T02120004  RH  025%=      5-min Rain = 0
KMC5 191810Z 16019G24KT 21/01 A299 RMK A01 T02140006  RH  025%=      5-min Rain = 0
KMC5 191811Z 17017G22KT 21/01 A299 RMK A01 T02140005  RH  025%=      5-min Rain = 0
KMC5 191812Z 17019KT 22/01 A299 RMK A01 T02160006  RH  025%=      5-min Rain = 0
KMC5 191813Z 18018G23KT 22/01 A299 RMK A01 T02160005  RH  024%=      5-min Rain = 0
KMC5 191814Z 17017G22KT 22/01 A299 RMK A01 T02160005  RH  025%=      5-min Rain = 0
KMC5 191815Z 16017G24KT 22/01 A299 RMK A01 T02180005  RH  024%=      5-min Rain = 0
KMC5 191816Z 17020KT 22/00 A299 RMK A01 T02190004  RH  024%=      5-min Rain = 0
KMC5 191817Z 16023KT 22/00 A2989 RMK A01 T02180003  RH  024%=      5-min Rain = 0
KMC5 191818Z 16020KT 22/00 A2989 RMK A01 T02160002  RH  024%=      5-min Rain = 0
KMC5 191819Z 16021KT 22/00 A2989 RMK A01 T02150004  RH  024%=      5-min Rain = 0
KMC5 191820Z 17020KT 21/00 A2989 RMK A01 T02140003  RH  024%=      5-min Rain = 0
KMC5 191821Z 17019KT 22/00 A2989 RMK A01 T02160004  RH  025%=      5-min Rain = 0
KMC5 191822Z 18020KT 22/00 A2989 RMK A01 T02170003  RH  024%=      5-min Rain = 0
KMC5 191823Z 17020KT 22/00 A2989 RMK A01 T02170003  RH  024%=      5-min Rain = 0
KMC5 191824Z 18017G22KT 22/00 A2989 RMK A01 T02180003  RH  024%=      5-min Rain = 0
KMC5 191825Z 17016KT 22/00 A2989 RMK A01 T02180004  RH  024%=      5-min Rain = 0
KMC5 191826Z 15019KT 22/01 A2988 RMK A01 T02200005  RH  024%=      5-min Rain = 0
KMC5 191827Z 17016KT 22/01 A2988 RMK A01 T02210005  RH  024%=      5-min Rain = 0
KMC5 191828Z 16018G23KT 22/01 A2988 RMK A01 T02230005  RH  024%=      5-min Rain = 0
KMC5 191829Z 16020KT 22/00 A2988 RMK A01 T02230003  RH  023%=      5-min Rain = 0
KMC5 191830Z 16021KT 22/00 A2988 RMK A01 T02220001  RH  023%=      5-min Rain = 0
KMC5 191831Z 16018KT 22/00 A2988 RMK A01 T02190000  RH  023%=      5-min Rain = 0
KMC5 191832Z 16018KT 22/00 A2988 RMK A01 T02190001  RH  023%=      5-min Rain = 0
KMC5 191833Z 18019KT 22/00 A2988 RMK A01 T02200001  RH  023%=      5-min Rain = 0
KMC5 191834Z 17020KT 22/00 A2987 RMK A01 T02200001  RH  023%=      5-min Rain = 0
KMC5 191835Z 16020G27KT 22/00 A2987 RMK A01 T02200001  RH  023%=      5-min Rain = 0
KMC5 191836Z 16023KT 22/M00 A2987 RMK A01 T02201001  RH  023%=      5-min Rain = 0
KMC5 191837Z 17020KT 22/M00 A2987 RMK A01 T02171002  RH  023%=      5-min Rain = 0
KMC5 191838Z 18022KT 22/M00 A2987 RMK A01 T02161001  RH  024%=      5-min Rain = 0
KMC5 191839Z 16023KT 22/M00 A2987 RMK A01 T02161001  RH  023%=      5-min Rain = 0
KMC5 191840Z 16022KT 22/M00 A2987 RMK A01 T02161001  RH  023%=      5-min Rain = 0
KMC5 191841Z 17021KT 22/00 A2987 RMK A01 T021600-0  RH  024%=      5-min Rain = 0
KMC5 191842Z 17019KT 22/00 A2987 RMK A01 T021600-0  RH  024%=      5-min Rain = 0
KMC5 191843Z 17019KT 22/00 A2987 RMK A01 T02180001  RH  024%=      5-min Rain = 0
KMC5 191844Z 17016KT 22/00 A2987 RMK A01 T02210002  RH  023%=      5-min Rain = 0
KMC5 191845Z 16016KT 22/00 A2987 RMK A01 T02230002  RH  023%=      5-min Rain = 0
KMC5 191846Z 15019KT 23/00 A2987 RMK A01 T02250002  RH  023%=      5-min Rain = 0
KMC5 191847Z 16017KT 23/00 A2987 RMK A01 T02250001  RH  023%=      5-min Rain = 0
KMC5 191848Z 16020KT 23/00 A2987 RMK A01 T02260000  RH  022%=      5-min Rain = 0
KMC5 191849Z 16017G27KT 23/00 A2987 RMK A01 T022600-0  RH  022%=      5-min Rain = 0
KMC5 191850Z 16018G27KT 23/00 A2987 RMK A01 T022600-0  RH  022%=      5-min Rain = 0
KMC5 191851Z 16018KT 23/00 A2987 RMK A01 T02250000  RH  022%=      5-min Rain = 0
KMC5 191852Z 18022KT 23/00 A2986 RMK A01 T02260000  RH  022%=      5-min Rain = 0
KMC5 191853Z 18020KT 23/00 A2986 RMK A01 T02260001  RH  022%=      5-min Rain = 0
KMC5 191854Z 18019G26KT 23/M00 A2986 RMK A01 T02251001  RH  022%=      5-min Rain = 0
KMC5 191855Z 17021KT 22/M00 A2986 RMK A01 T02221001  RH  023%=      5-min Rain = 0
KMC5 191856Z 16020KT 22/M00 A2986 RMK A01 T02221002  RH  023%=      5-min Rain = 0
KMC5 191857Z 17022KT 22/M00 A2986 RMK A01 T02221001  RH  023%=      5-min Rain = 0
KMC5 191858Z 16021G26KT 22/M00 A2987 RMK A01 T02221001  RH  023%=      5-min Rain = 0
KMC5 191859Z 17019KT 22/M00 A2986 RMK A01 T02211001  RH  023%=      5-min Rain = 0
KMC5 191900Z 16022G27KT 22/00 A2986 RMK A01 T02210001  RH  023%=      5-min Rain = 0
KMC5 191901Z 17021KT 22/00 A2986 RMK A01 T02210001  RH  023%=      5-min Rain = 0
KMC5 191902Z 16023KT 22/00 A2986 RMK A01 T022100-0  RH  023%=      5-min Rain = 0
KMC5 191903Z 16020KT 22/M00 A2986 RMK A01 T02191001  RH  023%=      5-min Rain = 0
KMC5 191904Z 16020KT 22/M00 A2986 RMK A01 T02191001  RH  023%=      5-min Rain = 0
KMC5 191905Z 18017KT 22/00 A2986 RMK A01 T021900-0  RH  023%=      5-min Rain = 0
KMC5 191906Z 17017KT 22/00 A2986 RMK A01 T02200001  RH  023%=      5-min Rain = 0
KMC5 191907Z 17023KT 22/00 A2986 RMK A01 T02210001  RH  023%=      5-min Rain = 0
KMC5 191908Z 17020G25KT 22/00 A2986 RMK A01 T022100-0  RH  023%=      5-min Rain = 0
KMC5 191909Z 18021KT 22/00 A2986 RMK A01 T02190000  RH  023%=      5-min Rain = 0
KMC5 191910Z 18018KT 22/00 A2986 RMK A01 T02180001  RH  024%=      5-min Rain = 0
KMC5 191911Z 17020KT 22/00 A2986 RMK A01 T02200002  RH  024%=      5-min Rain = 0
KMC5 191912Z 17019KT 22/00 A2986 RMK A01 T02190002  RH  024%=      5-min Rain = 0
KMC5 191913Z 17018KT 22/00 A2986 RMK A01 T02180003  RH  024%=      5-min Rain = 0
KMC5 191914Z 16018KT 22/00 A2986 RMK A01 T02210004  RH  024%=      5-min Rain = 0
KMC5 191915Z 17018KT 22/00 A2986 RMK A01 T02220003  RH  023%=      5-min Rain = 0
KMC5 191916Z 18020KT 22/00 A2986 RMK A01 T02220002  RH  023%=      5-min Rain = 0
KMC5 191917Z 16018G23KT 22/00 A2986 RMK A01 T02210004  RH  024%=      5-min Rain = 0
KMC5 191918Z 17019KT 22/00 A2986 RMK A01 T02210002  RH  023%=      5-min Rain = 0
KMC5 191919Z 17018KT 22/00 A2986 RMK A01 T02200003  RH  024%=      5-min Rain = 0
KMC5 191920Z 17018KT 22/00 A2986 RMK A01 T02200004  RH  024%=      5-min Rain = 0
KMC5 191921Z 17018KT 22/00 A2986 RMK A01 T02200004  RH  024%=      5-min Rain = 0
KMC5 191922Z 16018KT 22/00 A2986 RMK A01 T02190003  RH  024%=      5-min Rain = 0
KMC5 191923Z 16019KT 22/00 A2986 RMK A01 T02180003  RH  024%=      5-min Rain = 0
KMC5 191924Z 16016KT 22/01 A2986 RMK A01 T02200005  RH  024%=      5-min Rain = 0
KMC5 191925Z 16018KT 22/01 A2986 RMK A01 T02210005  RH  024%=      5-min Rain = 0
KMC5 191926Z 17016KT 22/00 A2985 RMK A01 T02200004  RH  024%=      5-min Rain = 0
KMC5 191927Z 16019KT 22/01 A2985 RMK A01 T02210005  RH  024%=      5-min Rain = 0
KMC5 191928Z 17018KT 22/01 A2985 RMK A01 T02220005  RH  024%=      5-min Rain = 0
KMC5 191929Z 18017KT 22/00 A2985 RMK A01 T02220004  RH  024%=      5-min Rain = 0
KMC5 191930Z 16020KT 22/01 A2985 RMK A01 T02210005  RH  024%=      5-min Rain = 0
KMC5 191931Z 16018KT 22/01 A2985 RMK A01 T02200005  RH  024%=      5-min Rain = 0
KMC5 191932Z 16018KT 22/01 A2985 RMK A01 T02190005  RH  024%=      5-min Rain = 0
KMC5 191933Z 16019KT 22/00 A2985 RMK A01 T02190004  RH  024%=      5-min Rain = 0
KMC5 191934Z 16022KT 22/00 A2985 RMK A01 T02180004  RH  024%=      5-min Rain = 0
KMC5 191935Z 16019KT 22/01 A2985 RMK A01 T02180005  RH  024%=      5-min Rain = 0
KMC5 191936Z 16020KT 22/01 A2985 RMK A01 T02180005  RH  024%=      5-min Rain = 0
KMC5 191937Z 17018KT 22/01 A2985 RMK A01 T02170005  RH  024%=      5-min Rain = 0
KMC5 191938Z 17019KT 22/01 A2985 RMK A01 T02170005  RH  024%=      5-min Rain = 0
KMC5 191939Z 17020KT 22/01 A2985 RMK A01 T02170006  RH  025%=      5-min Rain = 0
KMC5 191940Z 17019KT 22/01 A2985 RMK A01 T02180006  RH  024%=      5-min Rain = 0
KMC5 191941Z 17019KT 22/01 A2985 RMK A01 T02180007  RH  025%=      5-min Rain = 0
KMC5 191942Z 17021KT 22/01 A2984 RMK A01 T02190006  RH  024%=      5-min Rain = 0
KMC5 191943Z 16019KT 22/01 A2985 RMK A01 T02190007  RH  024%=      5-min Rain = 0
KMC5 191944Z 17020KT 22/01 A2985 RMK A01 T02200006  RH  024%=      5-min Rain = 0
KMC5 191945Z 17022KT 22/01 A2985 RMK A01 T02220006  RH  024%=      5-min Rain = 0
KMC5 191946Z 17021KT 22/00 A2984 RMK A01 T02220004  RH  023%=      5-min Rain = 0
KMC5 191947Z 18021KT 22/00 A2984 RMK A01 T02210003  RH  024%=      5-min Rain = 0
KMC5 191948Z 18019KT 22/01 A2984 RMK A01 T02210005  RH  024%=      5-min Rain = 0
KMC5 191949Z 19019KT 22/01 A2984 RMK A01 T02210005  RH  024%=      5-min Rain = 0
KMC5 191950Z 18018KT 22/01 A2984 RMK A01 T02210006  RH  024%=      5-min Rain = 0
KMC5 191951Z 17022G27KT 22/01 A2984 RMK A01 T02240007  RH  024%=      5-min Rain = 0
KMC5 191952Z 17023KT 22/00 A2984 RMK A01 T02240004  RH  023%=      5-min Rain = 0
KMC5 191953Z 17019G24KT 22/00 A2984 RMK A01 T02210004  RH  024%=      5-min Rain = 0
KMC5 191954Z 17018KT 22/01 A2984 RMK A01 T02200005  RH  024%=      5-min Rain = 0
KMC5 191955Z 16019KT 22/01 A2984 RMK A01 T02220007  RH  024%=      5-min Rain = 0
KMC5 191956Z 18017KT 22/01 A2984 RMK A01 T02220006  RH  024%=      5-min Rain = 0
KMC5 191957Z 17018KT 22/01 A2984 RMK A01 T02210007  RH  024%=      5-min Rain = 0
KMC5 191958Z 18017KT 22/01 A2984 RMK A01 T02220008  RH  024%=      5-min Rain = 0
KMC5 191959Z 18021KT 23/01 A2984 RMK A01 T02250007  RH  024%=      5-min Rain = 0
KMC5 192000Z 18017KT 22/01 A2984 RMK A01 T02230005  RH  024%=      5-min Rain = 0
KMC5 192001Z 18019KT 22/01 A2984 RMK A01 T02240007  RH  024%=      5-min Rain = 0
KMC5 192002Z 18019KT 23/01 A2984 RMK A01 T02250007  RH  024%=      5-min Rain = 0
KMC5 192003Z 18019KT 22/01 A2984 RMK A01 T02240005  RH  023%=      5-min Rain = 0
KMC5 192004Z 18020KT 22/01 A2984 RMK A01 T02230005  RH  024%=      5-min Rain = 0
KMC5 192005Z 17018G23KT 22/00 A2984 RMK A01 T02240004  RH  023%=      5-min Rain = 0
KMC5 192006Z 18019KT 22/00 A2984 RMK A01 T02230003  RH  023%=      5-min Rain = 0
KMC5 192007Z 18016KT 22/01 A2984 RMK A01 T02220005  RH  024%=      5-min Rain = 0
KMC5 192008Z 17019KT 22/01 A2984 RMK A01 T02230005  RH  024%=      5-min Rain = 0
KMC5 192009Z 17020KT 22/00 A2983 RMK A01 T02210003  RH  023%=      5-min Rain = 0
KMC5 192010Z 17019KT 22/00 A2983 RMK A01 T02190001  RH  023%=      5-min Rain = 0
KMC5 192011Z 17018KT 22/00 A2983 RMK A01 T02190003  RH  024%=      5-min Rain = 0
KMC5 192012Z 17020KT 22/00 A2983 RMK A01 T02180004  RH  024%=      5-min Rain = 0
KMC5 192013Z 17018KT 22/00 A2983 RMK A01 T02170004  RH  024%=      5-min Rain = 0
KMC5 192014Z 17021KT 22/01 A2983 RMK A01 T02180005  RH  024%=      5-min Rain = 0
KMC5 192015Z 17023KT 22/01 A2983 RMK A01 T02190005  RH  024%=      5-min Rain = 0
KMC5 192016Z 16021KT 22/01 A2983 RMK A01 T02190005  RH  024%=      5-min Rain = 0
KMC5 192017Z 16019KT 22/01 A2983 RMK A01 T02200006  RH  024%=      5-min Rain = 0
KMC5 192018Z 16017KT 22/01 A2983 RMK A01 T02220007  RH  024%=      5-min Rain = 0
KMC5 192019Z 16017KT 22/01 A2983 RMK A01 T02240008  RH  024%=      5-min Rain = 0
KMC5 192020Z 17018G24KT 23/01 A2983 RMK A01 T02270008  RH  023%=      5-min Rain = 0
KMC5 192021Z 18021KT 23/01 A2983 RMK A01 T02290006  RH  023%=      5-min Rain = 0
KMC5 192022Z 18020KT 23/01 A2983 RMK A01 T02250005  RH  023%=      5-min Rain = 0
KMC5 192023Z 18017KT 22/01 A2983 RMK A01 T02240006  RH  024%=      5-min Rain = 0
KMC5 192024Z 18018KT 23/01 A2983 RMK A01 T02250008  RH  024%=      5-min Rain = 0
KMC5 192025Z 17018G24KT 23/01 A2983 RMK A01 T02280010  RH  024%=      5-min Rain = 0
KMC5 192026Z 17020KT 23/01 A2982 RMK A01 T02290008  RH  023%=      5-min Rain = 0
KMC5 192027Z 17022KT 23/01 A2982 RMK A01 T02280008  RH  023%=      5-min Rain = 0
KMC5 192028Z 17017G23KT 23/01 A2982 RMK A01 T02260009  RH  024%=      5-min Rain = 0
KMC5 192029Z 17022KT 23/01 A2982 RMK A01 T02270008  RH  024%=      5-min Rain = 0
KMC5 192030Z 17021KT 23/01 A2982 RMK A01 T02260008  RH  024%=      5-min Rain = 0
KMC5 192031Z 17022KT 23/01 A2982 RMK A01 T02250008  RH  024%=      5-min Rain = 0
KMC5 192032Z 18018G24KT 23/01 A2982 RMK A01 T02250008  RH  024%=      5-min Rain = 0
KMC5 192033Z 17022G27KT 23/01 A2982 RMK A01 T02250007  RH  024%=      5-min Rain = 0
KMC5 192034Z 18020KT 23/01 A2982 RMK A01 T02250007  RH  024%=      5-min Rain = 0
KMC5 192035Z 18018KT 23/01 A2982 RMK A01 T02250007  RH  024%=      5-min Rain = 0
KMC5 192036Z 18014KT 22/01 A2982 RMK A01 T02240008  RH  024%=      5-min Rain = 0
KMC5 192037Z 17016KT 23/01 A2982 RMK A01 T02270010  RH  024%=      5-min Rain = 0
KMC5 192038Z 18017G22KT 23/01 A2982 RMK A01 T02290009  RH  023%=      5-min Rain = 0
KMC5 192039Z 18019KT 23/01 A2982 RMK A01 T02310011  RH  023%=      5-min Rain = 0
KMC5 192040Z 18018G23KT 23/01 A2982 RMK A01 T02310010  RH  023%=      5-min Rain = 0
KMC5 192041Z 18018G23KT 23/01 A2982 RMK A01 T02300010  RH  023%=      5-min Rain = 0
KMC5 192042Z 18015KT 23/01 A2982 RMK A01 T02300011  RH  023%=      5-min Rain = 0
KMC5 192043Z 18021KT 23/01 A2982 RMK A01 T02320010  RH  023%=      5-min Rain = 0
KMC5 192044Z 19019KT 23/01 A2982 RMK A01 T02270008  RH  023%=      5-min Rain = 0
KMC5 192045Z 17017KT 23/01 A2982 RMK A01 T02250009  RH  024%=      5-min Rain = 0
KMC5 192046Z 17018KT 23/01 A2982 RMK A01 T02260011  RH  024%=      5-min Rain = 0
KMC5 192047Z 17018KT 23/01 A2982 RMK A01 T02260010  RH  024%=      5-min Rain = 0
KMC5 192048Z 17019G24KT 23/01 A2982 RMK A01 T02260010  RH  024%=      5-min Rain = 0
KMC5 192049Z 17022KT 23/01 A2982 RMK A01 T02250010  RH  024%=      5-min Rain = 0
KMC5 192050Z 17017KT 22/01 A2982 RMK A01 T02240009  RH  024%=      5-min Rain = 0
KMC5 192051Z 18016KT 23/01 A2982 RMK A01 T02250011  RH  024%=      5-min Rain = 0
KMC5 192052Z 17014G21KT 23/01 A2982 RMK A01 T02270011  RH  024%=      5-min Rain = 0
KMC5 192053Z 17018KT 23/01 A2982 RMK A01 T02290012  RH  024%=      5-min Rain = 0
KMC5 192054Z 17016KT 23/01 A2982 RMK A01 T02290012  RH  024%=      5-min Rain = 0
KMC5 192055Z 16013KT 23/01 A2982 RMK A01 T02310013  RH  024%=      5-min Rain = 0
KMC5 192056Z 17016G21KT 23/01 A2981 RMK A01 T02330013  RH  023%=      5-min Rain = 0
KMC5 192057Z 17015KT 23/01 A2981 RMK A01 T02330012  RH  023%=      5-min Rain = 0
KMC5 192058Z 17019KT 23/01 A2981 RMK A01 T02320012  RH  023%=      5-min Rain = 0
KMC5 192059Z 17016KT 23/01 A2981 RMK A01 T02310012  RH  024%=      5-min Rain = 0
KMC5 192100Z 18019KT 23/01 A2981 RMK A01 T02310011  RH  023%=      5-min Rain = 0
KMC5 192101Z 16018KT 23/01 A2981 RMK A01 T02300010  RH  024%=      5-min Rain = 0
KMC5 192102Z 16017G22KT 23/01 A2981 RMK A01 T02290011  RH  024%=      5-min Rain = 0
KMC5 192103Z 17017KT 23/01 A2981 RMK A01 T02290010  RH  024%=      5-min Rain = 0
KMC5 192104Z 16012KT 23/01 A2981 RMK A01 T02300012  RH  024%=      5-min Rain = 0
KMC5 192105Z 16015KT 23/01 A2981 RMK A01 T02330012  RH  023%=      5-min Rain = 0
KMC5 192106Z 16018KT 23/01 A2981 RMK A01 T02330010  RH  023%=      5-min Rain = 0
KMC5 192107Z 15018KT 23/01 A2981 RMK A01 T02330008  RH  023%=      5-min Rain = 0
KMC5 192108Z 16016KT 23/01 A2981 RMK A01 T02330008  RH  023%=      5-min Rain = 0
KMC5 192109Z 15017KT 23/01 A2981 RMK A01 T02340007  RH  022%=      5-min Rain = 0
KMC5 192110Z 16019KT 24/01 A298 RMK A01 T02350005  RH  022%=      5-min Rain = 0
KMC5 192111Z 16018KT 23/00 A298 RMK A01 T02340004  RH  022%=      5-min Rain = 0
KMC5 192112Z 17020KT 23/00 A298 RMK A01 T02330004  RH  022%=      5-min Rain = 0
KMC5 192113Z 16019KT 23/00 A298 RMK A01 T02330003  RH  022%=      5-min Rain = 0
KMC5 192114Z 16022KT 23/00 A298 RMK A01 T02340004  RH  022%=      5-min Rain = 0
KMC5 192115Z 16019KT 23/00 A298 RMK A01 T02340003  RH  022%=      5-min Rain = 0
KMC5 192116Z 16016KT 23/00 A298 RMK A01 T02330003  RH  022%=      5-min Rain = 0
KMC5 192117Z 15016KT 23/01 A298 RMK A01 T02340005  RH  022%=      5-min Rain = 0
KMC5 192118Z 15018KT 23/01 A298 RMK A01 T02340005  RH  022%=      5-min Rain = 0
KMC5 192119Z 15017KT 23/00 A298 RMK A01 T02340004  RH  022%=      5-min Rain = 0
KMC5 192120Z 15020KT 23/00 A298 RMK A01 T02340004  RH  022%=      5-min Rain = 0
KMC5 192121Z 15018KT 23/01 A298 RMK A01 T02330006  RH  022%=      5-min Rain = 0
KMC5 192122Z 15020G25KT 23/01 A298 RMK A01 T02330005  RH  022%=      5-min Rain = 0
KMC5 192123Z 15020KT 23/00 A298 RMK A01 T02330003  RH  022%=      5-min Rain = 0
KMC5 192124Z 15018KT 23/01 A298 RMK A01 T02330005  RH  022%=      5-min Rain = 0
KMC5 192125Z 14016G21KT 23/00 A298 RMK A01 T02330004  RH  022%=      5-min Rain = 0
KMC5 192126Z 16016KT 23/00 A298 RMK A01 T02330004  RH  022%=      5-min Rain = 0
KMC5 192127Z 16017KT 23/01 A298 RMK A01 T02340005  RH  022%=      5-min Rain = 0
KMC5 192128Z 16013KT 24/00 A298 RMK A01 T02350004  RH  022%=      5-min Rain = 0
KMC5 192129Z 17015KT 24/00 A298 RMK A01 T02360004  RH  022%=      5-min Rain = 0
KMC5 192130Z 15013KT 24/01 A298 RMK A01 T02380005  RH  022%=      5-min Rain = 0
KMC5 192131Z 15017KT 24/01 A298 RMK A01 T02390006  RH  022%=      5-min Rain = 0
KMC5 192132Z 14015KT 24/01 A298 RMK A01 T02370005  RH  022%=      5-min Rain = 0
KMC5 192133Z 15016KT 24/00 A298 RMK A01 T02360004  RH  022%=      5-min Rain = 0
KMC5 192134Z 16020KT 24/M00 A298 RMK A01 T02361002  RH  021%=      5-min Rain = 0
KMC5 192135Z 16016KT 24/M01 A298 RMK A01 T02371007  RH  020%=      5-min Rain = 0
KMC5 192136Z 17019KT 24/M01 A298 RMK A01 T02381006  RH  020%=      5-min Rain = 0
KMC5 192137Z 18019KT 24/M01 A298 RMK A01 T02391007  RH  020%=      5-min Rain = 0
KMC5 192138Z 17020KT 24/M01 A298 RMK A01 T02391008  RH  020%=      5-min Rain = 0
KMC5 192139Z 16017KT 24/M01 A298 RMK A01 T02391008  RH  020%=      5-min Rain = 0
KMC5 192140Z 17019G24KT 24/M01 A298 RMK A01 T02391007  RH  020%=      5-min Rain = 0
KMC5 192141Z 16021G26KT 24/M01 A2979 RMK A01 T02391008  RH  019%=      5-min Rain = 0
KMC5 192142Z 17021G26KT 24/M01 A2979 RMK A01 T02391008  RH  019%=      5-min Rain = 0
KMC5 192143Z 17018KT 24/M01 A2979 RMK A01 T02391008  RH  019%=      5-min Rain = 0
KMC5 192144Z 16017KT 24/M01 A2979 RMK A01 T02391008  RH  020%=      5-min Rain = 0
KMC5 192145Z 16017KT 24/M01 A2979 RMK A01 T02391008  RH  020%=      5-min Rain = 0
KMC5 192146Z 16014G19KT 24/M01 A2979 RMK A01 T02391008  RH  019%=      5-min Rain = 0
KMC5 192147Z 17014KT 24/M01 A2979 RMK A01 T02401006  RH  020%=      5-min Rain = 0
KMC5 192148Z 18016KT 24/M01 A2979 RMK A01 T02411007  RH  019%=      5-min Rain = 0
KMC5 192149Z 18015G21KT 24/M01 A298 RMK A01 T02411006  RH  019%=      5-min Rain = 0
KMC5 192150Z 18016KT 24/M01 A298 RMK A01 T02411007  RH  019%=      5-min Rain = 0
KMC5 192151Z 17020KT 24/M01 A298 RMK A01 T02411008  RH  019%=      5-min Rain = 0
KMC5 192152Z 18019KT 24/M01 A298 RMK A01 T02411010  RH  019%=      5-min Rain = 0
KMC5 192153Z 19018KT 24/M01 A298 RMK A01 T02401008  RH  019%=      5-min Rain = 0
KMC5 192154Z 20017KT 24/M01 A298 RMK A01 T02401008  RH  019%=      5-min Rain = 0
KMC5 192155Z 18016KT 24/M01 A298 RMK A01 T02411009  RH  019%=      5-min Rain = 0
KMC5 192156Z 18016KT 24/M01 A298 RMK A01 T02411008  RH  019%=      5-min Rain = 0
KMC5 192157Z 18021KT 24/M01 A2979 RMK A01 T02411009  RH  019%=      5-min Rain = 0
KMC5 192158Z 17020G25KT 24/M01 A2979 RMK A01 T02391009  RH  019%=      5-min Rain = 0
KMC5 192159Z 18019KT 24/M01 A2979 RMK A01 T02391009  RH  019%=      5-min Rain = 0
KMC5 192200Z 18018KT 24/M01 A2979 RMK A01 T02391009  RH  019%=      5-min Rain = 0
KMC5 192201Z 18018KT 24/M01 A2979 RMK A01 T02391008  RH  019%=      5-min Rain = 0
KMC5 192202Z 17014KT 24/M01 A2979 RMK A01 T02391008  RH  020%=      5-min Rain = 0
KMC5 192203Z 18016KT 24/M01 A2979 RMK A01 T02391008  RH  020%=      5-min Rain = 0
KMC5 192204Z 17015KT 24/M01 A2979 RMK A01 T02391008  RH  020%=      5-min Rain = 0
KMC5 192205Z 17013KT 24/M01 A2979 RMK A01 T02391007  RH  020%=      5-min Rain = 0
KMC5 192206Z 18018KT 24/M01 A2979 RMK A01 T02391008  RH  020%=      5-min Rain = 0
KMC5 192207Z 18017KT 24/M01 A2979 RMK A01 T02391008  RH  019%=      5-min Rain = 0
KMC5 192208Z 17018G24KT 24/M01 A2979 RMK A01 T02391008  RH  019%=      5-min Rain = 0
KMC5 192209Z 19016G23KT 24/M01 A2979 RMK A01 T02391008  RH  019%=      5-min Rain = 0
KMC5 192210Z 19017KT 24/M01 A2979 RMK A01 T02391008  RH  019%=      5-min Rain = 0
KMC5 192211Z 19016KT 24/M01 A2979 RMK A01 T02401008  RH  019%=      5-min Rain = 0
KMC5 192212Z 20017KT 24/M01 A2979 RMK A01 T02411009  RH  019%=      5-min Rain = 0
KMC5 192213Z 19015KT 24/M01 A2979 RMK A01 T02411010  RH  019%=      5-min Rain = 0
KMC5 192214Z 19018KT 24/M01 A2979 RMK A01 T02411010  RH  019%=      5-min Rain = 0
KMC5 192215Z 20019KT 24/M01 A2979 RMK A01 T02411010  RH  019%=      5-min Rain = 0
KMC5 192216Z 20016G21KT 24/M01 A2979 RMK A01 T02401010  RH  019%=      5-min Rain = 0
KMC5 192217Z 19019KT 24/M01 A2979 RMK A01 T02401010  RH  019%=      5-min Rain = 0
KMC5 192218Z 18020KT 24/M01 A2979 RMK A01 T02391010  RH  019%=      5-min Rain = 0
KMC5 192219Z 19018G23KT 24/M01 A2979 RMK A01 T02381010  RH  019%=      5-min Rain = 0
KMC5 192220Z 19015KT 24/M01 A2979 RMK A01 T02371009  RH  019%=      5-min Rain = 0
KMC5 192221Z 19018KT 24/M01 A2979 RMK A01 T02371009  RH  020%=      5-min Rain = 0
KMC5 192222Z 19016KT 24/M01 A2979 RMK A01 T02371008  RH  020%=      5-min Rain = 0
KMC5 192223Z 19018G23KT 24/M01 A2979 RMK A01 T02371007  RH  020%=      5-min Rain = 0
KMC5 192224Z 19018KT 24/M01 A2979 RMK A01 T02361007  RH  020%=      5-min Rain = 0
KMC5 192225Z 19020KT 24/M01 A2979 RMK A01 T02361006  RH  020%=      5-min Rain = 0
KMC5 192226Z 19018KT 24/M01 A2979 RMK A01 T02361006  RH  020%=      5-min Rain = 0
KMC5 192227Z 19017G22KT 24/M01 A2979 RMK A01 T02361006  RH  020%=      5-min Rain = 0
KMC5 192228Z 19018KT 24/M01 A2979 RMK A01 T02361005  RH  020%=      5-min Rain = 0
KMC5 192229Z 19016KT 24/M01 A2979 RMK A01 T02351005  RH  020%=      5-min Rain = 0
KMC5 192230Z 20017KT 24/M01 A2979 RMK A01 T02361005  RH  020%=      5-min Rain = 0
KMC5 192231Z 19015G20KT 24/M01 A2979 RMK A01 T02351005  RH  020%=      5-min Rain = 0
KMC5 192232Z 19019KT 24/M01 A2979 RMK A01 T02351005  RH  020%=      5-min Rain = 0
KMC5 192233Z 20018KT 24/M01 A2979 RMK A01 T02351005  RH  020%=      5-min Rain = 0
KMC5 192234Z 20016KT 23/M01 A2979 RMK A01 T02341005  RH  020%=      5-min Rain = 0
KMC5 192235Z 19014G19KT 23/M00 A2979 RMK A01 T02341004  RH  021%=      5-min Rain = 0
KMC5 192236Z 20019KT 23/M00 A2979 RMK A01 T02341004  RH  021%=      5-min Rain = 0
KMC5 192237Z 19019KT 23/M01 A2979 RMK A01 T02341005  RH  021%=      5-min Rain = 0
KMC5 192238Z 20018KT 23/M01 A2979 RMK A01 T02331005  RH  021%=      5-min Rain = 0
KMC5 192239Z 19021KT 23/M01 A2979 RMK A01 T02331005  RH  021%=      5-min Rain = 0
KMC5 192240Z 19020KT 23/M01 A2979 RMK A01 T02321005  RH  021%=      5-min Rain = 0
KMC5 192241Z 19016G21KT 23/M01 A2979 RMK A01 T02321005  RH  021%=      5-min Rain = 0
KMC5 192242Z 19016KT 23/M01 A2979 RMK A01 T02311005  RH  021%=      5-min Rain = 0
KMC5 192243Z 19016KT 23/M01 A2979 RMK A01 T02311005  RH  021%=      5-min Rain = 0
KMC5 192244Z 19014G20KT 23/M01 A2979 RMK A01 T02301005  RH  021%=      5-min Rain = 0
KMC5 192245Z 18017G22KT 23/M01 A2979 RMK A01 T02281006  RH  021%=      5-min Rain = 0
KMC5 192246Z 19017KT 23/M01 A2979 RMK A01 T02281006  RH  021%=      5-min Rain = 0
KMC5 192247Z 18020KT 23/M01 A2979 RMK A01 T02271006  RH  021%=      5-min Rain = 0
KMC5 192248Z 19018G23KT 23/M01 A2979 RMK A01 T02271006  RH  021%=      5-min Rain = 0
KMC5 192249Z 19016KT 23/M01 A2979 RMK A01 T02271006  RH  021%=      5-min Rain = 0
KMC5 192250Z 19015KT 23/M01 A2979 RMK A01 T02261006  RH  021%=      5-min Rain = 0
KMC5 192251Z 19013KT 23/M01 A2979 RMK A01 T02261005  RH  021%=      5-min Rain = 0
KMC5 192252Z 19013KT 23/M01 A2979 RMK A01 T02251005  RH  022%=      5-min Rain = 0
KMC5 192253Z 19012KT 23/M01 A2979 RMK A01 T02251005  RH  022%=      5-min Rain = 0
KMC5 192254Z 18015KT 22/M01 A2979 RMK A01 T02241005  RH  022%=      5-min Rain = 0
KMC5 192255Z 19015KT 22/M01 A2979 RMK A01 T02241005  RH  022%=      5-min Rain = 0
KMC5 192256Z 19014KT 22/M00 A2979 RMK A01 T02241004  RH  022%=      5-min Rain = 0
KMC5 192257Z 19012KT 22/M00 A2979 RMK A01 T02241004  RH  022%=      5-min Rain = 0
KMC5 192258Z 19012KT 22/M00 A2979 RMK A01 T02221004  RH  022%=      5-min Rain = 0
KMC5 192259Z 19013KT 22/M00 A2979 RMK A01 T02211004  RH  022%=      5-min Rain = 0
KMC5 192300Z 19012KT 22/M00 A2979 RMK A01 T02221003  RH  022%=      5-min Rain = 0
KMC5 192301Z 19013KT 22/M00 A2979 RMK A01 T02221002  RH  022%=      5-min Rain = 0
KMC5 192302Z 19012KT 22/M00 A298 RMK A01 T02211003  RH  023%=      5-min Rain = 0
KMC5 192303Z 19012KT 22/M00 A298 RMK A01 T02201003  RH  023%=      5-min Rain = 0
KMC5 192304Z 20014KT 22/M00 A298 RMK A01 T02191003  RH  023%=      5-min Rain = 0
KMC5 192305Z 19012KT 22/M00 A298 RMK A01 T02191003  RH  023%=      5-min Rain = 0
KMC5 192306Z 19012KT 22/M00 A298 RMK A01 T02191003  RH  023%=      5-min Rain = 0
KMC5 192307Z 19014KT 22/M00 A2979 RMK A01 T02191003  RH  023%=      5-min Rain = 0
KMC5 192308Z 19015KT 22/M00 A2979 RMK A01 T02191003  RH  023%=      5-min Rain = 0
KMC5 192309Z 19013KT 22/M00 A2979 RMK A01 T02191003  RH  023%=      5-min Rain = 0
KMC5 192310Z 19013KT 22/M00 A2979 RMK A01 T02191004  RH  023%=      5-min Rain = 0
KMC5 192311Z 19014KT 22/M00 A2979 RMK A01 T02181004  RH  023%=      5-min Rain = 0
KMC5 192312Z 19012KT 22/M00 A298 RMK A01 T02171004  RH  023%=      5-min Rain = 0
KMC5 192313Z 19012KT 22/M00 A298 RMK A01 T02161004  RH  023%=      5-min Rain = 0
KMC5 192314Z 19014KT 21/M00 A298 RMK A01 T02141004  RH  023%=      5-min Rain = 0
KMC5 192315Z 19015KT 22/M00 A298 RMK A01 T02151004  RH  023%=      5-min Rain = 0
KMC5 192316Z 19014KT 22/M00 A298 RMK A01 T02151004  RH  023%=      5-min Rain = 0
KMC5 192317Z 19016KT 22/M00 A298 RMK A01 T02151004  RH  023%=      5-min Rain = 0
KMC5 192318Z 19015KT 22/M00 A298 RMK A01 T02151004  RH  023%=      5-min Rain = 0
KMC5 192319Z 19015KT 22/M00 A298 RMK A01 T02151004  RH  023%=      5-min Rain = 0
KMC5 192320Z 19014KT 21/M00 A298 RMK A01 T02141004  RH  023%=      5-min Rain = 0
KMC5 192321Z 18014KT 21/M00 A298 RMK A01 T02131004  RH  024%=      5-min Rain = 0
KMC5 192322Z 19014KT 21/M00 A298 RMK A01 T02121004  RH  024%=      5-min Rain = 0
KMC5 192323Z 19014KT 21/M00 A298 RMK A01 T02111003  RH  024%=      5-min Rain = 0
KMC5 192324Z 19014KT 21/M00 A298 RMK A01 T02111003  RH  024%=      5-min Rain = 0
KMC5 192325Z 19014KT 21/M00 A298 RMK A01 T02101003  RH  024%=      5-min Rain = 0
KMC5 192326Z 18013KT 21/M00 A298 RMK A01 T02091003  RH  024%=      5-min Rain = 0
KMC5 192327Z 18013KT 21/M00 A298 RMK A01 T02091003  RH  024%=      5-min Rain = 0
KMC5 192328Z 19013KT 21/M00 A298 RMK A01 T02091003  RH  024%=      5-min Rain = 0
KMC5 192329Z 19013KT 21/M00 A298 RMK A01 T02071003  RH  024%=      5-min Rain = 0
KMC5 192330Z 18011KT 21/M00 A298 RMK A01 T02071003  RH  025%=      5-min Rain = 0
KMC5 192331Z 18012KT 21/M00 A298 RMK A01 T02061003  RH  025%=      5-min Rain = 0
KMC5 192332Z 19012KT 21/M00 A298 RMK A01 T02051003  RH  025%=      5-min Rain = 0
KMC5 192333Z 18012KT 20/M00 A298 RMK A01 T02031003  RH  025%=      5-min Rain = 0
KMC5 192334Z 18012KT 20/M00 A298 RMK A01 T02031002  RH  025%=      5-min Rain = 0
KMC5 192335Z 18012KT 20/M00 A298 RMK A01 T02021002  RH  025%=      5-min Rain = 0
KMC5 192336Z 18012KT 20/M00 A298 RMK A01 T02011002  RH  026%=      5-min Rain = 0
KMC5 192337Z 18012KT 20/M00 A298 RMK A01 T02011002  RH  026%=      5-min Rain = 0
KMC5 192338Z 18012KT 20/M00 A298 RMK A01 T02011002  RH  026%=      5-min Rain = 0
KMC5 192339Z 18012KT 20/M00 A298 RMK A01 T02011001  RH  026%=      5-min Rain = 0
KMC5 192340Z 18012KT 20/M00 A298 RMK A01 T02001001  RH  026%=      5-min Rain = 0
KMC5 192341Z 18012KT 20/M00 A298 RMK A01 T01991001  RH  026%=      5-min Rain = 0
KMC5 192342Z 18012KT 20/M00 A298 RMK A01 T01981001  RH  026%=      5-min Rain = 0
KMC5 192343Z 18012KT 20/00 A298 RMK A01 T019700-0  RH  027%=      5-min Rain = 0
KMC5 192344Z 17012KT 20/00 A298 RMK A01 T01960000  RH  027%=      5-min Rain = 0
KMC5 192345Z 17011KT 20/00 A298 RMK A01 T01970001  RH  027%=      5-min Rain = 0
KMC5 192346Z 17013KT 20/00 A298 RMK A01 T01960001  RH  027%=      5-min Rain = 0
KMC5 192347Z 17012KT 20/00 A298 RMK A01 T01950001  RH  027%=      5-min Rain = 0
KMC5 192348Z 17011KT 20/00 A298 RMK A01 T01950002  RH  027%=      5-min Rain = 0
KMC5 192349Z 17012KT 19/00 A298 RMK A01 T01930002  RH  028%=      5-min Rain = 0
KMC5 192350Z 17011KT 19/00 A298 RMK A01 T01930003  RH  028%=      5-min Rain = 0
KMC5 192351Z 16011KT 19/00 A298 RMK A01 T01910003  RH  028%=      5-min Rain = 0
KMC5 192352Z 16010KT 19/00 A298 RMK A01 T01910004  RH  029%=      5-min Rain = 0
KMC5 192353Z 17012KT 19/01 A298 RMK A01 T01900005  RH  029%=      5-min Rain = 0
KMC5 192354Z 16012KT 19/01 A298 RMK A01 T01890007  RH  029%=      5-min Rain = 0
KMC5 192355Z 16011KT 19/01 A298 RMK A01 T01890007  RH  029%=      5-min Rain = 0
KMC5 192356Z 16013KT 19/01 A298 RMK A01 T01890009  RH  030%=      5-min Rain = 0
KMC5 192357Z 16011KT 19/01 A298 RMK A01 T01890010  RH  030%=      5-min Rain = 0
KMC5 192358Z 17011KT 19/01 A298 RMK A01 T01890010  RH  030%=      5-min Rain = 0
KMC5 192359Z 16012KT 19/01 A298 RMK A01 T01880011  RH  030%=      5-min Rain = 0
KMC5 200000Z 17011KT 19/01 A298 RMK A01 T01890012  RH  031%=      5-min Rain = 0
KMC5 200001Z 17012KT 19/01 A298 RMK A01 T01880012  RH  031%=      5-min Rain = 0
KMC5 200002Z 17011KT 19/01 A298 RMK A01 T01860013  RH  031%=      5-min Rain = 0
KMC5 200003Z 17013KT 19/01 A298 RMK A01 T01860014  RH  031%=      5-min Rain = 0
KMC5 200004Z 17013KT 19/02 A298 RMK A01 T01860015  RH  032%=      5-min Rain = 0
KMC5 200005Z 17012KT 19/02 A298 RMK A01 T01870015  RH  032%=      5-min Rain = 0
KMC5 200006Z 16011KT 19/02 A298 RMK A01 T01860015  RH  032%=      5-min Rain = 0
KMC5 200007Z 17011KT 19/02 A298 RMK A01 T01850015  RH  032%=      5-min Rain = 0
KMC5 200008Z 17013KT 19/02 A298 RMK A01 T01850016  RH  032%=      5-min Rain = 0
KMC5 200009Z 17010KT 19/02 A298 RMK A01 T01850016  RH  032%=      5-min Rain = 0
KMC5 200010Z 17011KT 18/02 A298 RMK A01 T01830015  RH  032%=      5-min Rain = 0
KMC5 200011Z 17011KT 18/02 A298 RMK A01 T01830017  RH  033%=      5-min Rain = 0
KMC5 200012Z 17010KT 18/02 A298 RMK A01 T01820017  RH  033%=      5-min Rain = 0
KMC5 200013Z 17011KT 18/02 A298 RMK A01 T01810017  RH  033%=      5-min Rain = 0
KMC5 200014Z 17011KT 18/02 A298 RMK A01 T01810017  RH  033%=      5-min Rain = 0
KMC5 200015Z 17011KT 18/02 A298 RMK A01 T01810017  RH  033%=      5-min Rain = 0
KMC5 200016Z 17011KT 18/02 A298 RMK A01 T01810018  RH  033%=      5-min Rain = 0
KMC5 200017Z 17011KT 18/02 A298 RMK A01 T01810018  RH  033%=      5-min Rain = 0
KMC5 200018Z 17010KT 18/02 A298 RMK A01 T01800017  RH  034%=      5-min Rain = 0
KMC5 200019Z 17010KT 18/02 A298 RMK A01 T01780017  RH  034%=      5-min Rain = 0
KMC5 200020Z 17011KT 18/02 A298 RMK A01 T01780018  RH  034%=      5-min Rain = 0
KMC5 200021Z 17010KT 18/02 A298 RMK A01 T01770018  RH  034%=      5-min Rain = 0
KMC5 200022Z 17011KT 18/02 A298 RMK A01 T01770018  RH  034%=      5-min Rain = 0
KMC5 200023Z 17010KT 18/02 A298 RMK A01 T01760018  RH  035%=      5-min Rain = 0
KMC5 200024Z 17012KT 18/02 A2981 RMK A01 T01750018  RH  035%=      5-min Rain = 0
KMC5 200025Z 17012KT 18/02 A2981 RMK A01 T01750018  RH  035%=      5-min Rain = 0
KMC5 200026Z 17011KT 18/02 A2981 RMK A01 T01750018  RH  035%=      5-min Rain = 0
KMC5 200027Z 17011KT 17/02 A2981 RMK A01 T01740018  RH  035%=      5-min Rain = 0
KMC5 200028Z 17011KT 17/02 A2981 RMK A01 T01740018  RH  035%=      5-min Rain = 0
KMC5 200029Z 17011KT 17/02 A2981 RMK A01 T01740018  RH  035%=      5-min Rain = 0
KMC5 200030Z 17011KT 17/02 A2981 RMK A01 T01730018  RH  035%=      5-min Rain = 0
KMC5 200031Z 17012KT 17/02 A2981 RMK A01 T01730018  RH  035%=      5-min Rain = 0
KMC5 200032Z 17011KT 17/02 A2981 RMK A01 T01730018  RH  035%=      5-min Rain = 0
KMC5 200033Z 17011KT 17/02 A2981 RMK A01 T01720018  RH  035%=      5-min Rain = 0
KMC5 200034Z 17011KT 17/02 A2981 RMK A01 T01710018  RH  036%=      5-min Rain = 0
KMC5 200035Z 17011KT 17/02 A2981 RMK A01 T01720018  RH  036%=      5-min Rain = 0
KMC5 200036Z 17012KT 17/02 A2981 RMK A01 T01720018  RH  036%=      5-min Rain = 0
KMC5 200037Z 17012KT 17/02 A2981 RMK A01 T01720018  RH  036%=      5-min Rain = 0
KMC5 200038Z 17012KT 17/02 A2981 RMK A01 T01710018  RH  036%=      5-min Rain = 0
KMC5 200039Z 16013KT 17/02 A2981 RMK A01 T01710018  RH  036%=      5-min Rain = 0
KMC5 200040Z 17012KT 17/02 A2981 RMK A01 T01720018  RH  036%=      5-min Rain = 0
KMC5 200041Z 17012KT 17/02 A2981 RMK A01 T01720018  RH  036%=      5-min Rain = 0
KMC5 200042Z 17011KT 17/02 A2981 RMK A01 T01720018  RH  035%=      5-min Rain = 0
KMC5 200043Z 17012KT 17/02 A2981 RMK A01 T01710017  RH  036%=      5-min Rain = 0
KMC5 200044Z 17012KT 17/02 A2981 RMK A01 T01710018  RH  036%=      5-min Rain = 0
KMC5 200045Z 17012KT 17/02 A2981 RMK A01 T01710018  RH  036%=      5-min Rain = 0
KMC5 200046Z 17013KT 17/02 A2981 RMK A01 T01710018  RH  036%=      5-min Rain = 0
KMC5 200047Z 17012KT 17/02 A2981 RMK A01 T01710018  RH  036%=      5-min Rain = 0
KMC5 200048Z 17011KT 17/02 A2981 RMK A01 T01710018  RH  036%=      5-min Rain = 0
KMC5 200049Z 17012KT 17/02 A2981 RMK A01 T01700017  RH  036%=      5-min Rain = 0
KMC5 200050Z 16012KT 17/02 A2981 RMK A01 T01690018  RH  036%=      5-min Rain = 0
KMC5 200051Z 17011KT 17/02 A2981 RMK A01 T01690018  RH  036%=      5-min Rain = 0
KMC5 200052Z 17011KT 17/02 A2981 RMK A01 T01690018  RH  036%=      5-min Rain = 0
KMC5 200053Z 17012KT 17/02 A2981 RMK A01 T01680017  RH  036%=      5-min Rain = 0
KMC5 200054Z 16012KT 17/02 A2981 RMK A01 T01680018  RH  036%=      5-min Rain = 0
KMC5 200055Z 17012KT 17/02 A2981 RMK A01 T01680018  RH  036%=      5-min Rain = 0
KMC5 200056Z 17011KT 17/02 A2981 RMK A01 T01680018  RH  036%=      5-min Rain = 0
KMC5 200057Z 17011KT 17/02 A2981 RMK A01 T01670017  RH  036%=      5-min Rain = 0
KMC5 200058Z 17011KT 17/02 A2981 RMK A01 T01660017  RH  037%=      5-min Rain = 0
KMC5 200059Z 16011KT 17/02 A2981 RMK A01 T01650017  RH  037%=      5-min Rain = 0
KMC5 200100Z 17011KT 17/02 A2981 RMK A01 T01650017  RH  037%=      5-min Rain = 0
KMC5 200101Z 17011KT 16/02 A2981 RMK A01 T01640017  RH  037%=      5-min Rain = 0
KMC5 200102Z 17012KT 16/02 A2981 RMK A01 T01630017  RH  037%=      5-min Rain = 0
KMC5 200103Z 17011KT 16/02 A2981 RMK A01 T01640017  RH  037%=      5-min Rain = 0
KMC5 200104Z 17012KT 16/02 A2981 RMK A01 T01640018  RH  037%=      5-min Rain = 0
KMC5 200105Z 17011KT 17/02 A2981 RMK A01 T01650018  RH  037%=      5-min Rain = 0
KMC5 200106Z 17012KT 16/02 A2981 RMK A01 T01640017  RH  037%=      5-min Rain = 0
KMC5 200107Z 17011KT 16/02 A2981 RMK A01 T01630017  RH  037%=      5-min Rain = 0
KMC5 200108Z 17010KT 16/02 A2981 RMK A01 T01640017  RH  037%=      5-min Rain = 0
KMC5 200109Z 17011KT 16/02 A2981 RMK A01 T01620017  RH  037%=      5-min Rain = 0
KMC5 200110Z 17011KT 16/02 A2981 RMK A01 T01610017  RH  038%=      5-min Rain = 0
KMC5 200111Z 17011KT 16/02 A2981 RMK A01 T01610017  RH  038%=      5-min Rain = 0
KMC5 200112Z 17012KT 16/02 A2981 RMK A01 T01610017  RH  038%=      5-min Rain = 0
KMC5 200113Z 16012KT 16/02 A2981 RMK A01 T01610018  RH  038%=      5-min Rain = 0
KMC5 200114Z 16013KT 16/02 A2981 RMK A01 T01620018  RH  038%=      5-min Rain = 0
KMC5 200115Z 16012KT 16/02 A2981 RMK A01 T01620018  RH  038%=      5-min Rain = 0
KMC5 200116Z 16013KT 16/02 A2981 RMK A01 T01620018  RH  038%=      5-min Rain = 0
KMC5 200117Z 17012KT 16/02 A2981 RMK A01 T01620018  RH  038%=      5-min Rain = 0
KMC5 200118Z 16012KT 16/02 A2981 RMK A01 T01620018  RH  038%=      5-min Rain = 0
KMC5 200119Z 16012KT 16/02 A2981 RMK A01 T01630018  RH  038%=      5-min Rain = 0
KMC5 200120Z 16012KT 16/02 A2981 RMK A01 T01630018  RH  038%=      5-min Rain = 0
KMC5 200121Z 16011KT 16/02 A2981 RMK A01 T01630018  RH  038%=      5-min Rain = 0
KMC5 200122Z 16012KT 16/02 A2981 RMK A01 T01610018  RH  038%=      5-min Rain = 0
KMC5 200123Z 16013KT 16/02 A2981 RMK A01 T01610018  RH  038%=      5-min Rain = 0
KMC5 200124Z 16013KT 16/02 A2981 RMK A01 T01630019  RH  038%=      5-min Rain = 0
KMC5 200125Z 16012KT 16/02 A2981 RMK A01 T01640019  RH  038%=      5-min Rain = 0
KMC5 200126Z 16013KT 16/02 A2981 RMK A01 T01640019  RH  038%=      5-min Rain = 0
KMC5 200127Z 16012KT 16/02 A2981 RMK A01 T01630020  RH  038%=      5-min Rain = 0
KMC5 200128Z 16012G17KT 16/02 A2981 RMK A01 T01630019  RH  038%=      5-min Rain = 0
KMC5 200129Z 16012KT 16/02 A2981 RMK A01 T01620019  RH  038%=      5-min Rain = 0
KMC5 200130Z 16012KT 16/02 A2981 RMK A01 T01620019  RH  038%=      5-min Rain = 0
KMC5 200131Z 16012KT 16/02 A2981 RMK A01 T01620020  RH  038%=      5-min Rain = 0
KMC5 200132Z 16012KT 16/02 A2981 RMK A01 T01620020  RH  038%=      5-min Rain = 0
KMC5 200133Z 16013KT 16/02 A2981 RMK A01 T01620020  RH  038%=      5-min Rain = 0
KMC5 200134Z 16012KT 16/02 A2981 RMK A01 T01620020  RH  038%=      5-min Rain = 0
KMC5 200135Z 16012KT 16/02 A2981 RMK A01 T01620020  RH  038%=      5-min Rain = 0
KMC5 200136Z 16013KT 16/02 A2981 RMK A01 T01610021  RH  039%=      5-min Rain = 0
KMC5 200137Z 16012KT 16/02 A2981 RMK A01 T01620021  RH  039%=      5-min Rain = 0
KMC5 200138Z 16013KT 16/02 A2981 RMK A01 T01630021  RH  038%=      5-min Rain = 0
KMC5 200139Z 16012KT 16/02 A2981 RMK A01 T01640021  RH  038%=      5-min Rain = 0
KMC5 200140Z 16011KT 16/02 A2981 RMK A01 T01630021  RH  038%=      5-min Rain = 0
KMC5 200141Z 16012KT 16/02 A2981 RMK A01 T01620021  RH  039%=      5-min Rain = 0
KMC5 200142Z 16014KT 16/02 A2981 RMK A01 T01620021  RH  039%=      5-min Rain = 0
KMC5 200143Z 15012KT 16/02 A2981 RMK A01 T01620021  RH  039%=      5-min Rain = 0
KMC5 200144Z 16012KT 16/02 A2981 RMK A01 T01620021  RH  039%=      5-min Rain = 0
KMC5 200145Z 16012KT 16/02 A2981 RMK A01 T01620022  RH  039%=      5-min Rain = 0
KMC5 200146Z 16013KT 16/02 A2981 RMK A01 T01620022  RH  039%=      5-min Rain = 0
KMC5 200147Z 16012KT 16/02 A2981 RMK A01 T01620022  RH  039%=      5-min Rain = 0
KMC5 200148Z 16013KT 16/02 A2981 RMK A01 T01620022  RH  039%=      5-min Rain = 0
KMC5 200149Z 16013KT 16/02 A2981 RMK A01 T01630023  RH  039%=      5-min Rain = 0
KMC5 200150Z 16012KT 16/02 A2981 RMK A01 T01630023  RH  039%=      5-min Rain = 0
KMC5 200151Z 16012KT 16/02 A2981 RMK A01 T01630023  RH  039%=      5-min Rain = 0
KMC5 200152Z 16013KT 16/02 A2981 RMK A01 T01630024  RH  039%=      5-min Rain = 0
KMC5 200153Z 16011KT 16/02 A2981 RMK A01 T01630024  RH  039%=      5-min Rain = 0
KMC5 200154Z 16011KT 16/02 A2981 RMK A01 T01620024  RH  039%=      5-min Rain = 0
KMC5 200155Z 16012KT 16/02 A2981 RMK A01 T01610024  RH  040%=      5-min Rain = 0
KMC5 200156Z 16012KT 16/03 A2981 RMK A01 T01610025  RH  040%=      5-min Rain = 0
KMC5 200157Z 16012KT 16/03 A2981 RMK A01 T01620025  RH  040%=      5-min Rain = 0
KMC5 200158Z 16013KT 16/03 A2981 RMK A01 T01620025  RH  040%=      5-min Rain = 0
KMC5 200159Z 16012KT 16/03 A2981 RMK A01 T01620025  RH  040%=      5-min Rain = 0
KMC5 200200Z 15011KT 16/03 A2981 RMK A01 T01620025  RH  040%=      5-min Rain = 0
KMC5 200201Z 16011KT 16/03 A2981 RMK A01 T01620025  RH  040%=      5-min Rain = 0
KMC5 200202Z 15010KT 16/02 A2981 RMK A01 T01600024  RH  040%=      5-min Rain = 0
KMC5 200203Z 16010KT 16/02 A2981 RMK A01 T01590024  RH  040%=      5-min Rain = 0
KMC5 200204Z 15011KT 16/02 A2981 RMK A01 T01580024  RH  040%=      5-min Rain = 0
KMC5 200205Z 15011KT 16/02 A2981 RMK A01 T01580024  RH  041%=      5-min Rain = 0
KMC5 200206Z 15011KT 16/02 A2981 RMK A01 T01570024  RH  041%=      5-min Rain = 0
KMC5 200207Z 15011KT 16/02 A2981 RMK A01 T01570024  RH  041%=      5-min Rain = 0
KMC5 200208Z 15011KT 16/02 A2981 RMK A01 T01570024  RH  041%=      5-min Rain = 0
KMC5 200209Z 15012KT 16/02 A2981 RMK A01 T01570024  RH  041%=      5-min Rain = 0
KMC5 200210Z 15011KT 16/03 A2981 RMK A01 T01570025  RH  041%=      5-min Rain = 0
KMC5 200211Z 15010KT 16/03 A2981 RMK A01 T01560025  RH  041%=      5-min Rain = 0
KMC5 200212Z 15011KT 16/03 A2981 RMK A01 T01550025  RH  041%=      5-min Rain = 0
KMC5 200213Z 15009KT 16/03 A2981 RMK A01 T01550025  RH  042%=      5-min Rain = 0
KMC5 200214Z 14009KT 15/03 A2981 RMK A01 T01540025  RH  042%=      5-min Rain = 0
KMC5 200215Z 14009KT 15/02 A2981 RMK A01 T01530024  RH  042%=      5-min Rain = 0
KMC5 200216Z 14009KT 15/03 A2981 RMK A01 T01520025  RH  042%=      5-min Rain = 0
KMC5 200217Z 14009KT 15/03 A2981 RMK A01 T01510025  RH  043%=      5-min Rain = 0
KMC5 200218Z 14010KT 15/03 A2981 RMK A01 T01510025  RH  043%=      5-min Rain = 0
KMC5 200219Z 14009KT 15/03 A2981 RMK A01 T01510026  RH  043%=      5-min Rain = 0
KMC5 200220Z 14010KT 15/03 A2981 RMK A01 T01510026  RH  043%=      5-min Rain = 0
KMC5 200221Z 14011KT 15/03 A2981 RMK A01 T01510026  RH  043%=      5-min Rain = 0
KMC5 200222Z 14011KT 15/03 A2981 RMK A01 T01510026  RH  043%=      5-min Rain = 0
KMC5 200223Z 14011KT 15/03 A2981 RMK A01 T01520026  RH  043%=      5-min Rain = 0
KMC5 200224Z 14011KT 15/03 A2981 RMK A01 T01520026  RH  043%=      5-min Rain = 0
KMC5 200225Z 14011KT 15/03 A2981 RMK A01 T01520027  RH  043%=      5-min Rain = 0
KMC5 200226Z 14011KT 15/03 A2981 RMK A01 T01530027  RH  043%=      5-min Rain = 0
KMC5 200227Z 15010KT 15/03 A2981 RMK A01 T01510027  RH  043%=      5-min Rain = 0
KMC5 200228Z 15011KT 15/03 A2981 RMK A01 T01510027  RH  043%=      5-min Rain = 0
KMC5 200229Z 14011KT 15/03 A2981 RMK A01 T01510028  RH  044%=      5-min Rain = 0
KMC5 200230Z 14011KT 15/03 A2981 RMK A01 T01500029  RH  044%=      5-min Rain = 0
KMC5 200231Z 14011KT 15/03 A2981 RMK A01 T01510029  RH  044%=      5-min Rain = 0
KMC5 200232Z 14011KT 15/03 A2981 RMK A01 T01500029  RH  044%=      5-min Rain = 0
KMC5 200233Z 15010KT 15/03 A2981 RMK A01 T01500030  RH  044%=      5-min Rain = 0
KMC5 200234Z 14011KT 15/03 A2981 RMK A01 T01500030  RH  044%=      5-min Rain = 0
KMC5 200235Z 14010KT 15/03 A2981 RMK A01 T01500030  RH  045%=      5-min Rain = 0
KMC5 200236Z 14011KT 15/03 A2981 RMK A01 T01490031  RH  045%=      5-min Rain = 0
KMC5 200237Z 15011KT 15/03 A2981 RMK A01 T01490032  RH  045%=      5-min Rain = 0
KMC5 200238Z 15012KT 15/03 A2981 RMK A01 T01500032  RH  045%=      5-min Rain = 0
KMC5 200239Z 15012KT 15/03 A2981 RMK A01 T01500032  RH  045%=      5-min Rain = 0
KMC5 200240Z 14010KT 15/03 A2981 RMK A01 T01500033  RH  045%=      5-min Rain = 0
KMC5 200241Z 15010KT 15/03 A2981 RMK A01 T01500033  RH  045%=      5-min Rain = 0
KMC5 200242Z 14009KT 15/03 A2981 RMK A01 T01500033  RH  045%=      5-min Rain = 0
KMC5 200243Z 15010KT 15/03 A2981 RMK A01 T01480032  RH  046%=      5-min Rain = 0
KMC5 200244Z 15011KT 15/03 A2981 RMK A01 T01480032  RH  046%=      5-min Rain = 0
KMC5 200245Z 15010KT 15/03 A2981 RMK A01 T01470033  RH  046%=      5-min Rain = 0
KMC5 200246Z 14009KT 15/03 A2981 RMK A01 T01470033  RH  046%=      5-min Rain = 0
KMC5 200247Z 14010KT 15/03 A2981 RMK A01 T01460033  RH  047%=      5-min Rain = 0
KMC5 200248Z 14010KT 15/03 A2981 RMK A01 T01460034  RH  047%=      5-min Rain = 0
KMC5 200249Z 15012KT 15/03 A2981 RMK A01 T01460034  RH  047%=      5-min Rain = 0
KMC5 200250Z 14010KT 15/03 A2981 RMK A01 T01460034  RH  047%=      5-min Rain = 0
KMC5 200251Z 15010KT 15/03 A2981 RMK A01 T01460034  RH  047%=      5-min Rain = 0
KMC5 200252Z 15010KT 15/03 A2981 RMK A01 T01460034  RH  047%=      5-min Rain = 0
KMC5 200253Z 15011KT 15/03 A2981 RMK A01 T01460034  RH  047%=      5-min Rain = 0
KMC5 200254Z 15011KT 15/03 A2981 RMK A01 T01460034  RH  047%=      5-min Rain = 0
KMC5 200255Z 15011KT 15/03 A2981 RMK A01 T01460034  RH  047%=      5-min Rain = 0
KMC5 200256Z 15012KT 15/03 A2981 RMK A01 T01470034  RH  047%=      5-min Rain = 0
KMC5 200257Z 15013KT 15/03 A2981 RMK A01 T01470034  RH  047%=      5-min Rain = 0
KMC5 200258Z 15011KT 15/03 A2981 RMK A01 T01480034  RH  046%=      5-min Rain = 0
KMC5 200259Z 15012KT 15/03 A2981 RMK A01 T01480034  RH  046%=      5-min Rain = 0
KMC5 200300Z 15012KT 15/03 A2981 RMK A01 T01480033  RH  046%=      5-min Rain = 0
KMC5 200301Z 15013KT 15/03 A2981 RMK A01 T01480034  RH  046%=      5-min Rain = 0
KMC5 200302Z 15012KT 15/03 A2981 RMK A01 T01480033  RH  046%=      5-min Rain = 0
KMC5 200303Z 15015G20KT 15/03 A2981 RMK A01 T01480034  RH  046%=      5-min Rain = 0
KMC5 200304Z 15012G17KT 15/03 A2981 RMK A01 T01490034  RH  046%=      5-min Rain = 0
KMC5 200305Z 14013KT 15/03 A2981 RMK A01 T01490033  RH  046%=      5-min Rain = 0
KMC5 200306Z 15012KT 15/03 A2981 RMK A01 T01480033  RH  046%=      5-min Rain = 0
KMC5 200307Z 15012KT 15/03 A2981 RMK A01 T01470033  RH  046%=      5-min Rain = 0
KMC5 200308Z 15012KT 15/03 A2981 RMK A01 T01470033  RH  046%=      5-min Rain = 0
KMC5 200309Z 15014KT 15/03 A2981 RMK A01 T01470033  RH  046%=      5-min Rain = 0
KMC5 200310Z 15012KT 15/03 A2981 RMK A01 T01480033  RH  046%=      5-min Rain = 0
KMC5 200311Z 15014KT 15/03 A2981 RMK A01 T01480033  RH  046%=      5-min Rain = 0
KMC5 200312Z 15012KT 15/03 A2981 RMK A01 T01480033  RH  046%=      5-min Rain = 0
KMC5 200313Z 15013KT 15/03 A2981 RMK A01 T01480034  RH  046%=      5-min Rain = 0
KMC5 200314Z 15012KT 15/03 A2981 RMK A01 T01480033  RH  046%=      5-min Rain = 0
KMC5 200315Z 15015KT 15/03 A2981 RMK A01 T01480033  RH  046%=      5-min Rain = 0
KMC5 200316Z 15012KT 15/03 A2981 RMK A01 T01480033  RH  046%=      5-min Rain = 0
KMC5 200317Z 15014KT 15/03 A2981 RMK A01 T01480032  RH  046%=      5-min Rain = 0
KMC5 200318Z 15013KT 15/03 A2981 RMK A01 T01480033  RH  046%=      5-min Rain = 0
KMC5 200319Z 15011KT 15/03 A2981 RMK A01 T01490033  RH  046%=      5-min Rain = 0
KMC5 200320Z 15012KT 15/03 A2981 RMK A01 T01480032  RH  046%=      5-min Rain = 0
KMC5 200321Z 15013KT 15/03 A2981 RMK A01 T01480032  RH  046%=      5-min Rain = 0
KMC5 200322Z 16011KT 15/03 A2981 RMK A01 T01480032  RH  046%=      5-min Rain = 0
KMC5 200323Z 15013KT 15/03 A2981 RMK A01 T01470032  RH  046%=      5-min Rain = 0
KMC5 200324Z 16014KT 15/03 A2981 RMK A01 T01470032  RH  046%=      5-min Rain = 0
KMC5 200325Z 15014KT 15/03 A2981 RMK A01 T01470032  RH  046%=      5-min Rain = 0
KMC5 200326Z 16013KT 15/03 A2981 RMK A01 T01480032  RH  046%=      5-min Rain = 0
KMC5 200327Z 16012KT 15/03 A2981 RMK A01 T01470032  RH  046%=      5-min Rain = 0
KMC5 200328Z 15012KT 15/03 A2981 RMK A01 T01470032  RH  046%=      5-min Rain = 0
KMC5 200329Z 16014KT 15/03 A2981 RMK A01 T01460032  RH  046%=      5-min Rain = 0
KMC5 200330Z 16012KT 15/03 A2981 RMK A01 T01470032  RH  046%=      5-min Rain = 0
KMC5 200331Z 16013KT 15/03 A2981 RMK A01 T01470032  RH  046%=      5-min Rain = 0
KMC5 200332Z 16014KT 15/03 A2981 RMK A01 T01470032  RH  046%=      5-min Rain = 0
KMC5 200333Z 15014KT 15/03 A2981 RMK A01 T01470032  RH  046%=      5-min Rain = 0
KMC5 200334Z 16012KT 15/03 A2981 RMK A01 T01480032  RH  046%=      5-min Rain = 0
KMC5 200335Z 16013KT 15/03 A2981 RMK A01 T01470032  RH  046%=      5-min Rain = 0
KMC5 200336Z 16014KT 15/03 A2981 RMK A01 T01460032  RH  046%=      5-min Rain = 0
KMC5 200337Z 16014KT 15/03 A2981 RMK A01 T01470032  RH  046%=      5-min Rain = 0
KMC5 200338Z 16014KT 15/03 A2981 RMK A01 T01480032  RH  046%=      5-min Rain = 0
KMC5 200339Z 16014KT 15/03 A2981 RMK A01 T01480032  RH  046%=      5-min Rain = 0
KMC5 200340Z 16013KT 15/03 A2981 RMK A01 T01480033  RH  046%=      5-min Rain = 0
KMC5 200341Z 16015KT 15/03 A2981 RMK A01 T01470033  RH  046%=      5-min Rain = 0
KMC5 200342Z 16012KT 15/03 A2981 RMK A01 T01470033  RH  046%=      5-min Rain = 0
KMC5 200343Z 16014KT 15/03 A2981 RMK A01 T01470032  RH  046%=      5-min Rain = 0
KMC5 200344Z 16014KT 15/03 A2981 RMK A01 T01460032  RH  046%=      5-min Rain = 0
KMC5 200345Z 16014KT 15/03 A2981 RMK A01 T01470033  RH  046%=      5-min Rain = 0
KMC5 200346Z 16014KT 15/03 A2981 RMK A01 T01470032  RH  046%=      5-min Rain = 0
KMC5 200347Z 16014KT 15/03 A2981 RMK A01 T01470033  RH  046%=      5-min Rain = 0
KMC5 200348Z 16013KT 15/03 A2981 RMK A01 T01470032  RH  046%=      5-min Rain = 0
KMC5 200349Z 16013KT 15/03 A2981 RMK A01 T01460032  RH  046%=      5-min Rain = 0
KMC5 200350Z 16014KT 15/03 A2981 RMK A01 T01460033  RH  046%=      5-min Rain = 0
KMC5 200351Z 16016KT 15/03 A2981 RMK A01 T01460032  RH  046%=      5-min Rain = 0
KMC5 200352Z 16015KT 15/03 A2981 RMK A01 T01460032  RH  046%=      5-min Rain = 0
KMC5 200353Z 16014KT 15/03 A2981 RMK A01 T01470032  RH  046%=      5-min Rain = 0
KMC5 200354Z 16014KT 15/03 A2981 RMK A01 T01470033  RH  046%=      5-min Rain = 0
KMC5 200355Z 16015KT 15/03 A2981 RMK A01 T01470033  RH  046%=      5-min Rain = 0
KMC5 200356Z 16014KT 15/03 A2981 RMK A01 T01470033  RH  046%=      5-min Rain = 0
KMC5 200357Z 16012KT 15/03 A2981 RMK A01 T01460033  RH  046%=      5-min Rain = 0
KMC5 200358Z 16014KT 15/03 A2981 RMK A01 T01450033  RH  047%=      5-min Rain = 0
KMC5 200359Z 16013KT 15/03 A2981 RMK A01 T01460033  RH  047%=      5-min Rain = 0
KMC5 200400Z 16013KT 15/03 A2981 RMK A01 T01460033  RH  047%=      5-min Rain = 0
KMC5 200401Z 16015KT 15/03 A2981 RMK A01 T01450033  RH  047%=      5-min Rain = 0
KMC5 200402Z 16014KT 15/03 A2981 RMK A01 T01450033  RH  047%=      5-min Rain = 0
KMC5 200403Z 16015KT 15/03 A2981 RMK A01 T01450033  RH  047%=      5-min Rain = 0
KMC5 200404Z 16015KT 15/03 A2981 RMK A01 T01460034  RH  047%=      5-min Rain = 0
KMC5 200405Z 16013KT 15/03 A2981 RMK A01 T01450034  RH  047%=      5-min Rain = 0
KMC5 200406Z 16014KT 15/03 A2981 RMK A01 T01450033  RH  047%=      5-min Rain = 0
KMC5 200407Z 16012KT 15/03 A2981 RMK A01 T01450034  RH  047%=      5-min Rain = 0
KMC5 200408Z 16015KT 14/03 A2981 RMK A01 T01440034  RH  047%=      5-min Rain = 0
KMC5 200409Z 16014KT 15/03 A2981 RMK A01 T01450034  RH  047%=      5-min Rain = 0
KMC5 200410Z 16015KT 15/04 A2981 RMK A01 T01450035  RH  047%=      5-min Rain = 0
KMC5 200411Z 16014KT 15/04 A2981 RMK A01 T01450035  RH  047%=      5-min Rain = 0
KMC5 200412Z 16013KT 15/04 A2981 RMK A01 T01460035  RH  047%=      5-min Rain = 0
KMC5 200413Z 16014KT 15/04 A2981 RMK A01 T01450035  RH  047%=      5-min Rain = 0
KMC5 200414Z 16013KT 15/04 A2981 RMK A01 T01450035  RH  048%=      5-min Rain = 0
KMC5 200415Z 16014KT 15/04 A2981 RMK A01 T01450035  RH  048%=      5-min Rain = 0
KMC5 200416Z 16015KT 15/04 A2981 RMK A01 T01460036  RH  048%=      5-min Rain = 0
KMC5 200417Z 16013KT 15/04 A2981 RMK A01 T01460036  RH  048%=      5-min Rain = 0
KMC5 200418Z 16012KT 15/04 A2981 RMK A01 T01460036  RH  048%=      5-min Rain = 0
KMC5 200419Z 16014KT 15/04 A2981 RMK A01 T01450036  RH  048%=      5-min Rain = 0
KMC5 200420Z 16013KT 15/04 A2981 RMK A01 T01460037  RH  048%=      5-min Rain = 0
KMC5 200421Z 17014KT 15/04 A2981 RMK A01 T01450036  RH  048%=      5-min Rain = 0
KMC5 200422Z 16014KT 15/04 A2981 RMK A01 T01450037  RH  048%=      5-min Rain = 0
KMC5 200423Z 17014KT 15/04 A2981 RMK A01 T01460037  RH  048%=      5-min Rain = 0
KMC5 200424Z 16013KT 15/04 A2981 RMK A01 T01470037  RH  048%=      5-min Rain = 0
KMC5 200425Z 16012KT 15/04 A2981 RMK A01 T01470038  RH  048%=      5-min Rain = 0
KMC5 200426Z 17016KT 15/04 A2981 RMK A01 T01470039  RH  048%=      5-min Rain = 0
KMC5 200427Z 17015G20KT 15/04 A2981 RMK A01 T01480039  RH  048%=      5-min Rain = 0
KMC5 200428Z 17012KT 15/04 A2981 RMK A01 T01490039  RH  048%=      5-min Rain = 0
KMC5 200429Z 17012KT 15/04 A2981 RMK A01 T01480038  RH  048%=      5-min Rain = 0
KMC5 200430Z 16013KT 15/04 A2981 RMK A01 T01460038  RH  048%=      5-min Rain = 0
KMC5 200431Z 16013KT 15/04 A298 RMK A01 T01460039  RH  049%=      5-min Rain = 0
KMC5 200432Z 16012KT 15/04 A298 RMK A01 T01460039  RH  049%=      5-min Rain = 0
KMC5 200433Z 16012KT 15/04 A298 RMK A01 T01460039  RH  049%=      5-min Rain = 0
KMC5 200434Z 16012KT 15/04 A298 RMK A01 T01460040  RH  049%=      5-min Rain = 0
KMC5 200435Z 16013KT 15/04 A298 RMK A01 T01460040  RH  049%=      5-min Rain = 0
KMC5 200436Z 16015KT 15/04 A298 RMK A01 T01460040  RH  049%=      5-min Rain = 0
KMC5 200437Z 16014KT 15/04 A298 RMK A01 T01480041  RH  049%=      5-min Rain = 0
KMC5 200438Z 16012KT 15/04 A298 RMK A01 T01470040  RH  049%=      5-min Rain = 0
KMC5 200439Z 16012KT 15/04 A298 RMK A01 T01460040  RH  049%=      5-min Rain = 0
KMC5 200440Z 16012KT 15/04 A298 RMK A01 T01450040  RH  049%=      5-min Rain = 0
KMC5 200441Z 17012KT 15/04 A298 RMK A01 T01450040  RH  049%=      5-min Rain = 0
KMC5 200442Z 16012KT 15/04 A298 RMK A01 T01450041  RH  050%=      5-min Rain = 0
KMC5 200443Z 16012G17KT 15/04 A298 RMK A01 T01450041  RH  050%=      5-min Rain = 0
KMC5 200444Z 16013KT 15/04 A298 RMK A01 T01450041  RH  050%=      5-min Rain = 0
KMC5 200445Z 16013KT 15/04 A298 RMK A01 T01450041  RH  050%=      5-min Rain = 0
KMC5 200446Z 16015KT 15/04 A298 RMK A01 T01450041  RH  049%=      5-min Rain = 0
KMC5 200447Z 16013KT 15/04 A298 RMK A01 T01460041  RH  049%=      5-min Rain = 0
KMC5 200448Z 16011KT 15/04 A298 RMK A01 T01450040  RH  049%=      5-min Rain = 0
KMC5 200449Z 16011KT 14/04 A298 RMK A01 T01440039  RH  050%=      5-min Rain = 0
KMC5 200450Z 16010KT 14/04 A298 RMK A01 T01420040  RH  050%=      5-min Rain = 0
KMC5 200451Z 16011KT 14/04 A298 RMK A01 T01420040  RH  050%=      5-min Rain = 0
KMC5 200452Z 16011KT 14/04 A298 RMK A01 T01410040  RH  050%=      5-min Rain = 0
KMC5 200453Z 16011KT 14/04 A298 RMK A01 T01410040  RH  051%=      5-min Rain = 0
KMC5 200454Z 16012KT 14/04 A298 RMK A01 T01400040  RH  051%=      5-min Rain = 0
KMC5 200455Z 16012KT 14/04 A298 RMK A01 T01400040  RH  051%=      5-min Rain = 0
KMC5 200456Z 16011KT 14/04 A298 RMK A01 T01400040  RH  051%=      5-min Rain = 0
KMC5 200457Z 16011KT 14/04 A298 RMK A01 T01400040  RH  051%=      5-min Rain = 0
KMC5 200458Z 16010KT 14/04 A298 RMK A01 T01400040  RH  051%=      5-min Rain = 0
KMC5 200459Z 16011KT 14/04 A298 RMK A01 T01390040  RH  051%=      5-min Rain = 0
KMC5 200500Z 16011KT 14/04 A298 RMK A01 T01390040  RH  051%=      5-min Rain = 0
KMC5 200501Z 16011KT 14/04 A298 RMK A01 T01390041  RH  051%=      5-min Rain = 0
KMC5 200502Z 16011G16KT 14/04 A298 RMK A01 T01390041  RH  052%=      5-min Rain = 0
KMC5 200503Z 16012KT 14/04 A298 RMK A01 T01390041  RH  052%=      5-min Rain = 0
KMC5 200504Z 16011KT 14/04 A298 RMK A01 T01400041  RH  052%=      5-min Rain = 0
KMC5 200505Z 16011KT 14/04 A298 RMK A01 T01390041  RH  052%=      5-min Rain = 0
KMC5 200506Z 16011KT 14/04 A298 RMK A01 T01390041  RH  052%=      5-min Rain = 0
KMC5 200507Z 16012KT 14/04 A298 RMK A01 T01380042  RH  052%=      5-min Rain = 0
KMC5 200508Z 16013KT 14/04 A298 RMK A01 T01390042  RH  052%=      5-min Rain = 0
KMC5 200509Z 16012KT 14/04 A298 RMK A01 T01390042  RH  052%=      5-min Rain = 0
KMC5 200510Z 16012KT 14/04 A298 RMK A01 T01390042  RH  052%=      5-min Rain = 0
KMC5 200511Z 16011KT 14/04 A298 RMK A01 T01400042  RH  052%=      5-min Rain = 0
KMC5 200512Z 16012KT 14/04 A298 RMK A01 T01390042  RH  052%=      5-min Rain = 0
KMC5 200513Z 16011G16KT 14/04 A298 RMK A01 T01390042  RH  052%=      5-min Rain = 0
KMC5 200514Z 16009KT 14/04 A298 RMK A01 T01390042  RH  052%=      5-min Rain = 0
KMC5 200515Z 16012KT 14/04 A298 RMK A01 T01380042  RH  052%=      5-min Rain = 0
KMC5 200516Z 16011KT 14/04 A298 RMK A01 T01380042  RH  052%=      5-min Rain = 0
KMC5 200517Z 16013KT 14/04 A298 RMK A01 T01380042  RH  053%=      5-min Rain = 0
KMC5 200518Z 16014KT 14/04 A298 RMK A01 T01380042  RH  053%=      5-min Rain = 0
KMC5 200519Z 16014KT 14/04 A298 RMK A01 T01390043  RH  052%=      5-min Rain = 0
KMC5 200520Z 16014KT 14/04 A298 RMK A01 T01400043  RH  052%=      5-min Rain = 0
KMC5 200521Z 16014KT 14/04 A298 RMK A01 T01400043  RH  052%=      5-min Rain = 0
KMC5 200522Z 16012KT 14/04 A298 RMK A01 T01410043  RH  052%=      5-min Rain = 0
KMC5 200523Z 16012KT 14/04 A298 RMK A01 T01400043  RH  052%=      5-min Rain = 0
KMC5 200524Z 16012G17KT 14/04 A298 RMK A01 T01400043  RH  052%=      5-min Rain = 0
KMC5 200525Z 15012KT 14/04 A298 RMK A01 T01400043  RH  052%=      5-min Rain = 0
KMC5 200526Z 16011KT 14/04 A298 RMK A01 T01390043  RH  052%=      5-min Rain = 0
KMC5 200527Z 16011KT 14/04 A2979 RMK A01 T01380043  RH  052%=      5-min Rain = 0
KMC5 200528Z 16012KT 14/04 A2979 RMK A01 T01380043  RH  053%=      5-min Rain = 0
KMC5 200529Z 16011KT 14/04 A2979 RMK A01 T01370043  RH  053%=      5-min Rain = 0
KMC5 200530Z 16010KT 14/04 A2979 RMK A01 T01370043  RH  053%=      5-min Rain = 0
KMC5 200531Z 16011KT 14/04 A2979 RMK A01 T01360042  RH  053%=      5-min Rain = 0
KMC5 200532Z 16010KT 14/04 A2979 RMK A01 T01360042  RH  053%=      5-min Rain = 0
KMC5 200533Z 16010KT 14/04 A2979 RMK A01 T01350042  RH  053%=      5-min Rain = 0
KMC5 200534Z 16009KT 14/04 A2979 RMK A01 T01350042  RH  053%=      5-min Rain = 0
KMC5 200535Z 16009KT 13/04 A2979 RMK A01 T01340042  RH  054%=      5-min Rain = 0
KMC5 200536Z 16009KT 13/04 A2979 RMK A01 T01340043  RH  054%=      5-min Rain = 0
KMC5 200537Z 16010KT 13/04 A2979 RMK A01 T01330042  RH  054%=      5-min Rain = 0
KMC5 200538Z 16009KT 13/04 A2979 RMK A01 T01330042  RH  054%=      5-min Rain = 0
KMC5 200539Z 16009KT 13/04 A2979 RMK A01 T01330042  RH  054%=      5-min Rain = 0
KMC5 200540Z 16009KT 13/04 A2979 RMK A01 T01320042  RH  054%=      5-min Rain = 0
KMC5 200541Z 16010KT 13/04 A2979 RMK A01 T01320042  RH  055%=      5-min Rain = 0
KMC5 200542Z 16010KT 13/04 A298 RMK A01 T01320043  RH  055%=      5-min Rain = 0
KMC5 200543Z 16010KT 13/04 A298 RMK A01 T01320042  RH  055%=      5-min Rain = 0
KMC5 200544Z 16010KT 13/04 A298 RMK A01 T01330043  RH  054%=      5-min Rain = 0
KMC5 200545Z 16010KT 13/04 A298 RMK A01 T01320042  RH  054%=      5-min Rain = 0
KMC5 200546Z 16009KT 13/04 A298 RMK A01 T01330042  RH  054%=      5-min Rain = 0
KMC5 200547Z 16009KT 13/04 A298 RMK A01 T01330042  RH  054%=      5-min Rain = 0
KMC5 200548Z 16009KT 13/04 A298 RMK A01 T01320042  RH  054%=      5-min Rain = 0
KMC5 200549Z 16009KT 13/04 A298 RMK A01 T01320042  RH  055%=      5-min Rain = 0
KMC5 200550Z 17008KT 13/04 A298 RMK A01 T01310042  RH  055%=      5-min Rain = 0
KMC5 200551Z 17006KT 13/04 A298 RMK A01 T01310042  RH  055%=      5-min Rain = 0
KMC5 200552Z 17007KT 13/04 A298 RMK A01 T01300042  RH  055%=      5-min Rain = 0
KMC5 200553Z 17007KT 13/04 A298 RMK A01 T01290042  RH  055%=      5-min Rain = 0
KMC5 200554Z 17007KT 13/04 A298 RMK A01 T01290043  RH  055%=      5-min Rain = 0
KMC5 200555Z 18007KT 13/04 A298 RMK A01 T01300043  RH  055%=      5-min Rain = 0
KMC5 200556Z 17006KT 13/04 A298 RMK A01 T01310043  RH  055%=      5-min Rain = 0
KMC5 200557Z 17008KT 13/04 A298 RMK A01 T01310043  RH  055%=      5-min Rain = 0
KMC5 200558Z 17007KT 13/04 A2979 RMK A01 T01320044  RH  055%=      5-min Rain = 0
KMC5 200559Z 17007KT 13/04 A2979 RMK A01 T01320044  RH  055%=      5-min Rain = 0

Page generated in 0.1214 seconds.